GEFSSE_con_cape1000_186.txt.gz
Probability
16 45 84 94 94 90 94 97 97 100 94 94 87 94 97 97 97 97 94 94 90 90 94 90 90 90 87 87 87 84 84 84 90 94 77 81 87 87 87 81 77 65 87
32 58 94 97 97 94 94 97 97 97 94 94 90 90 94 94 94 94 94 94 90 90 90 90 87 84 90 90 87 90 90 90 90 84 81 77 77 84 84 81 61 61 84
45 61 84 97 97 94 94 97 97 97 97 94 94 90 94 94 94 94 90 90 87 87 87 87 87 87 94 94 94 94 90 81 81 84 61 35 65 84 84 77 84 81 84
45 52 74 94 97 94 94 97 97 100 100 100 97 97 97 94 94 90 90 87 87 87 87 90 90 90 90 94 94 94 87 84 84 58 32 35 45 81 90 87 87 77 81
42 55 90 94 94 94 94 97 97 97 97 97 97 97 97 94 94 94 90 90 90 94 90 90 90 87 90 87 84 87 81 77 71 32 23 32 65 84 90 84 87 87 84
42 71 94 94 94 94 94 97 97 97 97 97 97 97 97 90 94 87 87 87 87 87 84 84 87 87 84 87 84 81 77 71 29 16 19 45 58 81 84 77 81 81 77
58 84 94 94 94 97 94 97 97 94 97 97 97 94 94 90 90 87 87 87 81 84 87 87 84 87 84 84 81 81 71 55 6 16 26 52 71 84 84 81 81 77 77
68 90 94 94 94 94 97 97 97 97 97 97 97 94 94 97 90 84 84 81 84 84 87 87 84 84 84 87 77 77 71 35 13 13 35 58 81 90 81 77 77 77 77
81 90 87 90 90 94 94 97 97 97 94 94 94 94 94 94 94 94 90 87 84 81 84 77 77 77 81 84 77 71 65 48 3 13 32 65 81 84 81 81 81 81 74
71 74 77 84 84 90 94 97 97 97 94 97 94 94 94 94 90 90 90 90 90 84 81 74 74 74 77 90 81 71 71 35 6 16 42 68 84 74 74 77 74 74 77
74 68 71 81 77 81 87 94 94 94 97 94 94 94 90 68 74 77 84 90 87 84 81 74 77 74 71 84 84 71 35 6 10 13 42 77 81 81 81 68 71 68 61
74 74 61 65 74 77 90 84 71 84 71 71 65 61 32 29 42 68 87 87 77 71 71 81 81 68 26 32 61 35 6 10 10 16 45 81 87 74 71 74 68 61 61
61 74 61 61 65 65 61 65 55 58 48 45 48 29 23 23 26 29 39 48 42 42 32 32 26 10 6 3 3 3 3 10 19 19 39 77 81 74 68 68 65 61 65
48 61 55 55 52 48 48 55 45 42 42 45 32 19 19 10 16 16 26 29 23 19 6 13 6 6 3 6 10 0 3 6 19 16 42 77 84 74 65 58 65 65 65
32 52 48 48 42 35 32 48 52 42 35 32 23 19 16 13 16 16 16 13 16 3 3 3 3 3 0 3 10 6 6 13 16 19 48 77 77 77 61 58 55 58 61
23 42 42 42 32 35 35 35 29 39 32 26 29 29 23 6 13 13 13 10 10 3 3 3 3 0 6 6 10 6 6 16 13 16 32 71 71 74 65 58 58 48 52
13 26 39 42 32 29 29 26 29 29 26 29 29 29 26 3 6 3 10 3 0 3 6 0 0 3 3 3 6 6 13 13 16 13 19 45 65 65 65 65 58 55 55
13 23 35 48 32 29 32 26 26 32 26 23 29 29 29 23 6 3 3 3 3 0 0 0 0 3 3 0 3 0 0 0 6 6 6 10 29 42 61 71 68 65 52
29 19 26 35 39 32 29 26 16 19 26 29 29 23 29 35 26 10 3 0 3 3 3 0 0 0 0 0 0 0 0 0 0 3 3 6 10 16 29 48 74 77 65
35 32 35 32 26 29 26 16 23 16 26 26 29 29 29 29 29 13 10 0 3 3 3 0 0 0 0 0 0 0 0 0 0 0 0 0 3 3 10 26 39 68 74
39 35 39 35 26 23 26 26 35 39 29 29 29 32 29 23 19 13 16 10 3 3 0 0 0 0 0 0 0 0 0 0 0 0 0 0 0 3 3 16 19 19 32
42 42 39 35 35 35 42 35 26 29 32 29 29 29 29 23 19 16 13 13 6 3 3 0 0 0 0 0 0 0 0 0 0 0 0 0 0 3 10 0 6 10 16
52 48 48 39 35 32 35 23 19 19 19 32 32 32 29 26 16 16 10 10 6 3 6 3 0 0 0 0 0 0 0 0 0 0 0 0 0 0 3 6 3 3 6
55 45 45 35 32 29 32 32 35 32 32 32 29 35 32 26 26 19 13 10 3 3 3 3 0 0 0 0 0 0 0 0 0 0 0 0 0 0 0 0 3 0 6
58 45 42 35 32 32 29 32 29 26 26 13 10 16 26 19 23 26 13 10 6 3 3 3 0 0 0 0 0 0 0 0 0 0 0 0 0 0 0 0 0 0 3
58 52 48 29 32 29 32 32 35 23 16 16 10 13 19 19 16 19 19 10 6 0 0 0 0 0 0 0 0 0 0 0 0 0 0 0 0 0 0 0 0 0 3

GEFSSE_con_cape1000_192.txt.gz
Probability
16 23 77 90 87 90 90 90 90 90 90 87 87 87 87 94 90 90 90 81 81 77 84 84 84 84 84 90 77 81 84 97 100 94 94 90 87 87 87 81 77 45 74
13 26 90 90 90 90 94 97 97 94 94 90 90 87 87 90 90 94 94 84 84 87 90 87 87 87 90 87 90 87 94 97 97 90 87 87 87 90 87 81 84 74 81
13 48 74 94 100 97 94 90 97 97 97 90 94 90 94 94 90 87 90 87 84 87 90 87 84 90 94 90 90 94 90 90 97 87 84 65 58 90 90 81 81 81 81
32 55 68 97 100 97 100 97 100 97 90 90 94 90 87 90 87 87 90 90 87 87 90 87 87 87 90 90 90 90 87 90 81 77 52 35 39 84 90 84 81 84 84
39 65 90 97 97 97 97 97 97 97 94 90 90 90 90 90 90 90 90 90 87 90 90 90 90 87 87 84 90 90 90 84 65 52 42 61 74 87 84 87 87 90 87
39 55 84 94 94 97 94 97 97 94 94 97 90 90 90 90 94 94 94 94 90 90 87 87 87 90 87 87 87 84 81 55 52 26 48 55 68 94 90 87 84 84 81
32 55 74 94 94 94 97 94 94 90 94 90 90 90 90 90 90 94 90 90 87 87 87 87 90 90 90 90 84 87 61 45 13 23 48 65 87 97 84 87 84 81 74
45 52 84 94 94 94 94 94 97 100 100 90 90 90 94 87 87 87 90 84 84 87 84 90 90 87 87 87 77 71 52 42 16 16 45 65 90 90 81 84 84 84 84
42 65 87 90 97 97 94 97 97 97 97 97 97 90 87 87 90 87 87 84 87 87 87 77 77 71 81 84 81 65 45 39 13 16 19 65 84 81 71 71 74 77 77
61 61 71 87 94 90 94 97 97 97 97 97 97 94 87 90 87 84 84 84 81 84 84 84 84 84 81 77 68 65 45 42 10 16 39 52 84 71 68 74 77 71 74
68 74 68 87 84 81 74 97 97 97 94 97 94 90 84 71 55 74 77 84 77 74 74 81 81 81 77 74 65 65 48 29 13 23 42 68 81 74 58 68 74 71 68
71 77 77 84 74 74 68 97 90 84 87 90 87 87 84 90 77 58 87 84 77 68 74 74 74 58 61 48 45 52 32 19 19 26 58 71 81 71 65 65 61 61 61
74 71 81 87 71 68 87 87 87 87 90 87 84 84 87 81 68 65 74 84 71 58 55 68 45 52 32 45 45 26 26 19 23 29 58 71 68 65 65 58 58 58 55
71 74 77 94 90 90 77 77 81 77 77 77 87 68 71 68 61 68 74 68 61 71 74 42 65 52 52 39 42 35 19 32 26 45 81 74 74 71 55 55 61 58 55
77 84 94 94 94 94 97 84 71 74 71 77 87 74 65 58 52 52 74 74 45 58 58 52 48 65 61 42 32 29 29 29 32 35 74 68 71 68 58 55 61 58 52
81 87 94 94 94 94 94 97 90 68 94 74 68 68 68 55 58 58 71 74 52 55 45 52 39 58 65 42 39 32 29 35 29 39 42 61 65 68 58 55 55 55 55
87 90 97 94 94 97 97 97 74 74 84 81 84 94 90 68 74 61 68 68 55 58 74 65 58 48 48 48 42 39 42 45 35 48 45 52 58 52 55 55 48 52 52
87 97 97 84 94 94 100 100 81 74 81 84 84 90 87 74 81 77 65 58 71 55 61 68 45 42 42 45 42 39 42 52 35 42 42 42 42 42 45 52 48 52 48
87 97 100 94 94 90 100 97 94 97 94 84 87 84 94 84 74 77 65 68 71 55 55 52 45 52 42 45 42 39 29 39 45 26 32 35 45 48 45 61 55 58 52
100 100 100 97 97 94 97 97 97 97 97 97 90 100 94 90 77 77 68 71 65 65 74 68 61 68 61 58 16 26 29 19 32 35 32 32 39 42 39 39 52 58 61
100 100 100 100 97 97 97 100 97 97 97 97 97 94 100 87 81 87 65 77 74 74 71 48 58 61 65 61 35 26 19 16 26 42 32 26 29 35 35 39 39 55 61
97 100 100 97 94 97 100 97 100 97 94 94 90 97 90 84 87 77 84 71 74 84 74 74 74 65 48 52 45 42 32 39 68 13 32 35 26 29 32 32 52 65 48
97 97 97 97 94 97 100 100 90 97 94 90 90 94 94 87 81 87 81 77 71 65 81 84 81 81 65 55 52 42 29 19 19 16 19 26 52 42 39 32 45 58 68
97 97 97 94 94 97 97 97 97 87 90 87 87 90 87 84 84 84 84 77 81 71 81 81 58 81 84 71 61 58 39 19 23 16 32 23 35 65 48 16 19 48 68
97 97 94 94 94 97 97 97 97 94 87 90 84 90 90 87 87 90 84 84 84 84 81 81 77 81 81 65 52 65 45 52 16 23 23 23 23 29 32 39 42 29 42
97 94 97 97 97 94 94 94 97 94 90 87 90 87 90 84 90 84 87 84 84 87 84 90 84 77 87 87 77 52 32 35 32 32 23 35 23 3 13 23 16 29 39

GEFSSE_con_cape1000_198.txt.gz
Probability
23 42 81 81 90 87 87 87 81 84 84 87 87 87 84 87 77 84 84 84 84 90 84 84 81 90 90 90 87 87 97 97 97 94 94 94 94 94 94 87 68 48 77
29 48 84 84 94 94 87 84 84 84 87 87 87 87 87 90 94 87 90 90 90 90 90 87 87 87 87 87 87 87 97 97 94 97 90 84 94 94 94 90 81 55 74
39 42 74 97 97 94 87 84 84 87 87 90 94 94 94 94 94 94 87 87 84 87 90 94 94 94 90 87 87 87 90 87 87 87 84 29 65 94 90 87 81 84 81
42 48 71 90 94 94 90 90 84 87 90 94 87 90 90 90 90 94 87 87 90 94 94 94 90 90 90 87 84 87 84 84 87 77 52 19 39 74 87 87 84 84 74
42 71 87 94 94 94 94 87 87 84 87 94 87 90 94 94 90 90 87 87 90 90 94 94 94 84 84 84 81 74 77 74 71 65 61 42 48 84 84 84 81 81 77
58 74 87 97 94 94 90 90 87 87 90 94 90 90 90 90 94 90 90 90 90 94 94 94 94 84 81 74 65 61 55 61 68 48 55 45 58 84 84 87 77 74 77
52 68 90 97 100 97 94 97 97 94 94 94 90 90 94 94 94 94 84 87 90 90 90 90 87 90 81 65 55 52 58 74 68 52 61 68 74 90 90 87 81 71 77
58 68 87 97 97 100 100 97 94 97 97 94 90 90 90 90 90 90 87 87 87 90 90 87 87 81 65 58 58 55 65 68 52 52 55 68 81 87 77 77 74 74 77
55 68 84 87 97 97 100 100 100 94 94 94 94 94 94 90 90 90 90 87 87 87 84 90 84 77 55 48 45 55 68 81 55 35 42 58 81 84 71 74 74 74 71
65 71 74 84 87 77 90 97 97 97 94 94 90 84 87 87 87 87 84 84 81 77 77 77 74 55 52 45 45 48 65 71 29 32 45 52 81 77 71 68 65 58 65
68 74 74 81 84 71 74 90 97 97 90 84 74 77 84 77 71 74 77 77 77 77 74 71 71 71 65 48 55 65 52 48 39 32 42 77 87 77 74 71 61 58 58
81 77 77 81 74 77 77 90 84 77 94 97 87 87 90 90 84 74 81 74 68 71 71 74 71 65 65 35 42 65 42 39 26 32 39 90 87 74 65 71 65 55 55
81 77 81 87 100 71 74 81 94 94 97 90 97 94 97 87 84 81 77 77 77 68 68 68 65 58 58 52 55 42 42 32 26 19 52 87 87 74 65 71 58 52 52
81 84 84 94 97 100 90 90 90 94 90 90 90 94 90 90 87 90 94 87 87 87 87 77 90 77 68 58 58 48 45 32 39 35 48 77 81 77 65 58 55 52 45
94 87 100 97 97 97 97 97 87 94 84 94 97 94 90 87 90 87 90 84 90 87 81 90 94 81 71 58 48 48 42 42 42 45 39 68 71 77 61 52 58 55 48
90 90 100 100 100 97 97 97 94 97 97 97 97 94 94 97 87 90 90 87 90 90 87 87 87 87 90 74 55 48 52 42 58 48 32 65 74 77 68 55 52 58 55
87 100 100 100 100 100 97 97 97 97 94 97 100 100 100 100 94 87 94 94 90 87 87 90 81 87 81 58 48 52 48 48 45 68 58 52 45 71 71 58 58 61 58
97 100 100 90 100 100 100 100 100 100 100 100 100 100 100 100 97 94 97 90 97 87 81 81 81 74 81 81 74 61 52 58 58 65 68 68 52 29 55 61 58 55 58
97 100 100 100 100 100 100 100 100 100 100 100 100 100 100 100 94 94 97 94 94 87 84 77 81 77 71 77 77 65 55 61 61 55 55 52 61 61 32 52 74 68 55
100 100 100 97 97 100 100 100 100 100 100 100 100 100 100 100 94 90 94 90 87 87 84 87 81 81 74 74 42 32 39 52 65 65 65 52 55 58 45 42 52 55 65
100 100 97 97 97 97 100 100 97 97 97 100 100 100 100 97 90 97 84 97 90 87 81 77 77 68 71 74 65 61 65 55 55 71 81 58 48 42 48 55 29 39 29
100 94 94 97 97 97 97 97 97 100 100 100 97 97 97 90 87 68 94 94 94 87 84 74 84 65 68 74 77 61 45 48 65 26 74 77 42 48 52 35 45 55 45
100 97 94 97 97 97 94 94 94 100 90 94 94 97 97 94 87 90 100 97 97 90 90 77 77 74 74 74 74 61 45 23 35 45 55 52 58 65 45 45 48 68 58
100 100 94 97 97 97 97 94 94 94 90 87 90 97 97 97 90 87 94 94 90 87 81 81 77 74 84 74 71 77 61 58 32 29 39 42 55 71 58 26 19 52 65
100 97 94 94 94 94 97 94 97 94 94 90 94 97 100 97 94 94 94 90 87 90 87 74 77 74 77 74 71 68 68 61 52 42 29 35 48 45 61 65 48 48 48
100 97 94 97 97 97 97 94 94 90 90 87 94 90 97 100 100 97 94 94 94 94 90 81 84 81 77 74 74 71 71 77 55 42 29 29 32 48 55 58 55 55 48

GEFSSE_con_cape1000_204.txt.gz
Probability
32 65 87 90 87 87 87 87 87 90 90 90 90 90 94 94 90 94 90 90 90 94 97 97 97 97 97 94 90 94 94 87 84 87 90 81 87 87 87 84 74 52 74
42 65 87 94 90 87 87 84 81 90 90 90 90 97 94 90 87 90 94 94 94 90 97 97 97 97 94 90 94 97 94 90 94 94 90 90 90 94 84 81 68 48 74
48 61 77 87 90 90 87 90 90 94 94 94 94 94 90 94 90 97 97 97 94 97 97 97 97 94 94 94 94 97 97 97 97 90 87 45 74 87 81 81 74 81 77
35 48 68 90 90 90 87 90 90 94 94 90 90 90 94 97 94 90 90 94 97 97 97 97 94 90 90 90 90 94 90 94 94 74 16 29 48 81 84 77 87 74 74
39 58 81 90 87 87 87 90 90 94 94 94 94 94 94 94 94 94 90 94 94 94 94 90 94 84 77 77 81 84 87 87 81 26 13 13 42 77 74 81 81 71 84
42 68 90 90 87 90 87 90 90 90 90 90 94 94 94 94 94 94 94 94 94 90 90 94 84 84 81 68 68 84 84 77 42 6 13 26 61 84 81 84 81 74 81
42 71 90 97 90 90 90 90 94 90 90 90 90 90 94 90 90 90 90 90 90 87 87 87 84 77 74 74 74 74 81 71 6 3 13 35 71 94 84 87 84 81 81
58 71 87 100 97 97 94 90 94 90 90 90 90 90 94 94 90 90 90 90 90 90 87 81 77 68 65 71 68 68 71 71 23 10 16 42 74 87 77 81 77 84 77
71 71 74 84 87 97 97 97 90 90 90 90 94 94 94 94 94 90 90 90 90 90 84 77 65 61 61 61 61 71 74 68 0 6 19 45 81 77 81 77 77 77 74
65 68 71 68 74 77 87 94 94 94 94 94 94 94 94 94 90 90 87 90 87 84 68 65 55 48 52 61 65 71 74 48 3 6 16 65 81 84 81 68 71 71 65
55 61 58 61 61 65 65 84 84 90 90 94 94 94 81 55 58 71 87 87 87 77 61 52 48 52 58 55 68 68 48 3 3 10 16 71 84 77 74 68 71 61 55
48 58 55 55 55 58 65 65 65 68 65 65 68 68 52 29 32 65 87 87 84 81 68 68 68 58 42 19 29 42 16 6 13 10 19 87 90 81 71 71 65 58 61
55 58 52 52 48 45 52 58 55 61 58 58 55 55 39 32 32 45 39 45 48 55 19 42 45 29 23 13 10 6 3 3 3 13 29 90 90 81 68 65 65 52 55
65 52 55 42 35 29 45 55 58 61 52 48 58 45 26 29 23 16 19 19 23 13 6 10 3 10 6 6 6 6 0 0 3 10 26 84 87 77 68 68 61 55 48
52 58 52 42 32 32 35 45 48 48 42 48 42 42 26 23 16 13 19 6 19 10 10 13 6 6 6 6 6 10 6 0 3 3 26 74 74 74 71 65 65 68 58
48 48 48 48 39 29 29 32 42 35 42 42 39 45 35 19 13 13 6 6 6 10 3 10 10 3 3 6 10 6 3 3 0 3 6 65 74 74 71 61 61 58 52
48 61 61 55 45 42 42 42 42 35 39 32 32 35 29 16 13 10 6 10 13 6 10 6 0 0 3 0 0 3 3 3 0 6 3 6 39 68 71 61 61 61 55
55 55 58 71 65 65 55 55 45 42 35 26 29 35 32 29 26 19 10 16 16 6 6 3 0 0 0 0 0 0 0 3 6 6 3 6 6 13 55 65 65 71 58
58 65 58 68 61 65 65 58 55 45 39 32 29 35 29 29 29 26 29 26 19 10 6 10 3 0 0 0 0 0 0 3 3 6 6 3 6 6 6 35 81 77 61
68 61 61 65 65 61 71 61 61 55 55 42 35 35 32 32 32 19 19 23 16 13 10 6 6 0 0 3 3 3 0 0 0 0 0 0 0 3 6 6 19 39 81
68 71 68 68 68 68 74 68 61 58 55 48 39 32 26 26 26 19 23 16 16 10 10 13 3 3 3 3 0 0 0 0 0 0 0 0 3 0 0 6 6 6 10
71 71 77 74 74 71 68 68 61 58 55 45 45 39 45 29 19 23 19 19 19 10 13 6 3 3 0 3 0 0 0 0 0 3 0 0 0 0 0 0 0 6 6
74 77 81 84 74 77 71 74 68 52 48 45 35 32 29 39 32 29 19 19 23 23 13 13 13 10 3 0 0 0 0 0 0 0 0 0 0 0 0 0 0 0 3
81 81 81 81 81 84 77 77 81 65 55 39 39 39 35 39 39 39 29 29 26 23 16 13 10 6 6 3 0 0 0 0 0 0 0 0 0 0 0 0 0 0 0
90 87 81 84 77 84 81 74 71 65 45 35 39 42 39 39 35 39 35 29 26 23 13 13 13 10 10 6 6 0 0 0 0 0 0 0 0 0 0 0 0 0 0
90 87 87 84 84 84 84 74 71 65 52 48 45 42 35 32 35 32 29 29 29 29 29 13 16 13 10 6 6 0 0 0 0 0 0 0 0 0 0 0 0 0 0

GEFSSE_con_cape1000_210.txt.gz
Probability
19 35 77 81 74 81 81 87 90 94 90 87 90 97 87 94 97 94 94 94 94 94 87 90 97 90 84 84 81 84 84 87 90 90 71 68 74 77 81 81 61 55 77
26 52 84 90 84 87 84 84 90 94 94 94 97 94 97 97 100 94 94 97 87 87 84 90 94 94 87 87 87 94 90 90 90 87 84 74 77 77 74 71 52 55 68
42 52 71 90 87 87 90 90 87 90 90 94 97 100 97 97 97 90 94 97 94 94 97 100 90 90 87 90 90 94 90 87 84 87 77 52 68 71 71 74 61 71 71
39 42 65 84 87 87 87 87 94 87 87 90 94 97 97 97 97 97 97 90 90 90 97 97 94 97 94 87 94 94 94 94 81 77 29 42 42 74 71 71 65 71 68
32 42 71 87 87 94 94 94 94 90 94 94 94 94 97 97 97 94 90 90 94 87 87 94 94 90 84 87 94 97 90 84 77 32 23 35 52 74 77 71 68 65 68
29 52 77 87 87 90 94 94 94 94 90 90 97 97 94 94 97 100 90 94 90 90 90 90 87 84 87 87 90 90 87 71 39 16 26 42 55 74 77 68 71 61 68
32 58 81 90 90 90 90 90 90 90 90 87 87 87 90 90 97 94 87 90 90 87 87 84 84 81 84 84 90 81 77 68 6 13 29 48 68 81 81 74 71 71 68
45 58 77 90 90 94 94 90 90 90 87 87 90 90 87 87 87 87 84 84 81 81 81 74 77 81 77 74 77 81 74 52 19 13 26 55 74 87 77 77 77 77 71
55 65 65 77 77 90 90 90 90 90 90 90 90 90 90 90 94 90 84 81 74 74 77 81 74 68 61 74 65 71 68 55 3 16 23 61 74 81 77 77 81 74 68
55 52 55 68 71 74 77 87 90 90 90 90 90 90 90 90 90 84 87 84 77 71 74 74 71 58 65 74 71 71 74 42 3 10 32 65 74 74 74 77 71 71 71
55 52 48 61 65 68 71 74 77 87 90 87 87 94 84 42 55 77 84 81 74 71 65 68 58 65 65 81 77 74 45 13 10 13 29 65 77 77 74 71 74 65 58
52 52 39 39 48 52 71 61 61 65 61 55 58 48 23 23 35 65 81 81 74 74 68 68 65 55 39 32 52 39 10 16 13 16 19 68 74 81 81 74 65 61 58
32 48 32 32 39 42 42 48 52 48 48 52 35 26 16 10 19 13 13 29 29 32 16 16 13 16 16 16 16 13 10 13 16 16 23 68 77 68 74 71 65 65 58
29 42 39 39 29 32 39 42 32 32 39 29 26 26 19 13 10 3 13 13 10 6 3 3 3 10 6 3 6 6 3 10 10 13 19 74 77 71 58 65 61 61 65
19 29 32 35 29 23 19 29 42 29 26 32 32 26 19 16 3 0 0 3 0 0 3 0 6 10 6 6 6 10 6 6 6 10 19 65 81 77 61 58 52 48 55
23 16 23 42 32 26 16 10 16 26 19 23 19 16 19 10 3 3 0 0 0 0 0 0 0 3 0 0 6 6 6 3 10 6 13 35 71 77 74 55 58 42 45
19 23 19 29 23 16 19 13 19 23 13 19 19 16 16 10 0 0 0 0 0 3 0 0 0 0 0 0 3 0 3 0 10 10 10 26 35 61 68 61 55 52 52
23 19 23 42 16 13 16 16 16 19 16 16 6 13 16 6 3 0 0 3 0 3 0 0 3 0 0 0 0 0 0 0 0 10 10 13 23 23 45 52 52 65 55
23 32 29 35 29 19 16 16 19 19 23 16 10 10 19 16 10 0 0 0 0 0 0 0 3 0 0 0 0 0 0 0 3 10 10 10 6 6 10 29 58 68 58
23 16 16 26 29 23 19 23 16 23 23 26 19 13 19 13 16 3 6 0 3 0 0 0 0 0 0 0 0 0 0 0 3 3 0 6 6 6 6 6 23 35 58
23 19 19 26 23 19 23 29 23 19 19 19 19 19 16 13 10 6 6 6 3 3 0 0 0 0 0 0 0 0 0 0 0 3 0 0 3 6 6 6 10 13 16
23 19 23 26 26 26 26 23 19 23 19 19 16 19 19 13 6 6 6 6 3 3 0 0 0 0 0 0 0 0 0 0 0 0 3 0 0 0 3 3 3 3 3
32 26 29 29 29 23 23 29 35 26 23 26 23 16 19 19 16 6 6 6 6 6 3 0 0 0 0 0 0 0 0 0 0 0 0 3 0 0 0 3 0 3 3
32 35 29 35 35 29 39 35 45 42 35 32 13 13 16 16 16 13 10 10 10 6 3 3 0 0 0 0 0 0 0 0 0 0 0 0 0 0 0 0 0 0 3
39 35 29 39 32 35 39 32 32 42 29 23 16 19 13 13 13 16 10 6 3 3 3 0 0 0 0 0 0 0 0 0 0 0 0 0 0 0 0 3 0 0 0
45 55 45 32 39 35 35 32 29 29 29 23 19 16 16 13 16 10 10 3 3 3 3 3 0 0 0 0 0 0 0 0 0 0 0 0 0 0 0 0 3 0 0

GEFSSE_con_cape1000_216.txt.gz
Probability
6 35 61 74 74 81 84 84 87 87 84 84 84 94 90 90 90 84 77 81 87 84 84 87 90 87 84 84 84 84 84 87 71 81 71 81 77 77 71 65 58 52 65
10 35 68 74 74 87 87 87 90 97 90 90 94 90 94 97 94 87 84 97 87 84 84 84 90 94 84 84 84 84 84 87 84 87 74 65 68 71 74 65 68 58 65
16 45 65 84 84 87 90 94 94 87 87 94 97 94 97 94 94 90 94 94 87 87 90 94 97 97 87 87 84 84 87 87 87 81 68 55 55 61 68 61 68 68 61
23 45 65 84 87 90 94 94 94 94 94 94 97 97 94 100 100 97 94 94 97 90 90 90 94 94 87 90 94 94 90 77 74 65 52 39 35 58 65 61 61 61 55
29 52 74 81 87 90 94 94 94 90 90 90 87 87 94 94 90 94 94 90 94 94 90 90 97 81 90 90 81 81 87 71 68 45 42 45 58 55 58 58 61 52 61
29 42 68 87 90 90 90 90 94 90 87 87 87 87 90 94 87 87 90 87 90 90 87 87 87 87 87 87 77 77 81 68 61 32 45 45 52 68 61 52 52 55 55
29 45 71 84 90 94 90 90 90 90 87 87 87 87 90 87 87 81 84 81 84 87 87 84 84 84 87 77 71 71 68 45 19 32 55 52 58 77 61 55 55 58 58
26 45 74 87 87 90 90 90 90 87 84 87 84 87 87 87 84 87 87 84 84 81 77 77 81 74 77 68 71 68 68 42 10 13 32 58 74 74 55 61 68 65 65
32 39 61 68 84 90 90 87 84 81 84 84 84 84 84 87 84 84 81 81 74 74 77 74 81 68 61 55 65 61 61 48 23 23 19 48 68 77 68 65 71 71 61
45 52 55 65 81 77 77 81 81 84 81 84 84 87 77 84 84 81 81 74 74 74 65 68 68 61 61 71 68 58 58 48 29 16 23 42 77 71 61 77 71 65 48
45 48 55 65 68 71 61 71 84 84 81 81 81 87 81 71 61 68 65 71 68 71 68 68 71 68 77 71 71 61 55 29 23 29 45 74 68 58 58 68 65 58 48
39 45 52 58 68 61 52 81 71 61 77 77 81 77 71 81 81 58 77 77 71 71 65 65 65 48 58 45 52 45 35 26 19 29 48 81 77 71 68 65 68 58 61
32 32 39 68 61 61 65 65 74 77 77 74 84 84 90 71 68 61 71 77 71 55 35 45 39 42 35 42 35 29 26 26 26 29 45 65 77 71 55 55 52 55 58
29 23 29 61 74 71 65 55 65 61 68 74 84 61 61 65 65 52 68 65 58 45 42 35 45 32 35 29 26 23 26 32 32 42 74 71 68 65 65 55 42 48 52
42 35 48 65 71 74 81 61 48 61 52 74 81 61 65 55 65 48 58 61 39 39 35 52 35 42 45 35 26 19 35 39 26 19 55 61 58 61 52 58 55 55 55
55 55 52 71 84 97 90 81 74 61 87 61 74 58 55 55 74 61 65 68 45 42 42 52 45 58 55 48 39 39 29 32 35 42 45 65 68 68 58 58 48 52 52
68 65 71 68 77 87 81 77 68 61 58 61 84 77 61 48 65 61 58 61 52 48 61 61 48 58 65 42 42 35 39 39 26 26 32 48 52 65 58 61 58 52 52
68 87 81 48 74 90 97 90 71 61 71 68 71 77 68 74 68 77 65 61 61 52 48 55 58 45 52 39 42 35 35 55 32 35 29 48 48 35 52 65 55 48 52
87 90 90 81 84 90 90 97 94 97 87 74 74 71 77 71 71 74 71 71 77 48 52 39 48 52 48 58 45 55 42 45 45 39 39 29 39 45 48 58 65 52 42
87 94 94 97 97 94 94 94 97 97 90 90 90 87 74 71 74 65 58 71 58 45 65 52 55 65 61 65 29 32 35 32 45 52 35 23 42 32 32 39 61 58 55
90 94 97 97 97 97 94 90 94 94 94 94 94 87 81 77 68 77 61 74 68 58 55 45 55 45 52 48 39 45 32 23 42 55 45 39 26 32 35 55 55 58 61
94 94 94 97 97 97 94 90 90 94 94 90 90 94 87 87 81 71 84 65 68 87 74 68 71 55 29 35 39 35 23 32 48 0 35 45 29 29 32 32 55 65 58
94 94 90 97 97 94 94 90 94 94 94 97 94 90 90 84 81 84 81 74 81 71 71 81 74 68 52 45 42 26 29 26 16 13 23 26 32 45 39 45 52 71 81
97 94 100 97 97 97 97 94 90 94 90 90 90 87 87 90 87 87 87 81 84 71 77 68 52 68 65 52 52 61 45 29 32 19 26 19 32 35 39 23 35 42 61
90 90 100 100 100 100 97 97 97 94 94 87 90 90 87 90 87 81 84 84 87 68 71 65 65 71 68 61 52 48 52 52 35 32 35 29 23 35 32 32 48 42 52
87 87 87 94 94 97 97 90 94 94 94 87 81 81 81 81 84 74 68 74 74 71 68 74 77 61 68 68 68 61 55 42 45 42 39 55 48 32 32 45 39 42 42

GEFSSE_con_cape1000_222.txt.gz
Probability
23 35 77 71 71 77 77 77 77 84 84 87 87 90 94 90 84 81 84 87 84 87 81 81 84 84 81 81 84 77 87 77 74 81 81 71 74 68 65 68 65 45 74
26 52 77 77 87 87 81 84 84 84 87 90 87 87 94 97 84 84 84 90 90 84 84 84 84 87 87 87 87 84 81 77 68 74 74 65 71 68 71 68 58 52 68
26 48 68 87 84 84 84 81 87 81 74 87 87 90 97 94 87 87 87 90 94 90 87 87 87 84 87 87 81 81 84 74 77 65 61 32 61 71 74 71 71 71 74
32 48 61 84 84 84 84 84 87 87 84 90 90 94 94 94 90 90 94 94 94 94 90 87 87 84 84 87 84 81 71 71 74 71 35 23 26 65 68 68 68 68 71
32 58 84 94 90 87 87 87 90 90 90 90 90 90 90 87 90 84 90 90 94 90 90 84 84 81 81 81 74 68 68 77 68 61 42 35 32 65 61 61 58 68 61
35 58 77 87 90 90 90 90 87 90 94 90 87 84 87 87 90 90 87 87 81 81 81 84 77 77 74 74 68 61 61 65 77 42 39 35 39 68 58 52 55 55 61
39 52 68 87 90 90 90 87 87 87 87 90 87 84 81 81 87 87 87 81 81 77 77 71 68 71 71 68 65 58 65 77 52 39 48 48 58 74 61 55 52 55 58
42 45 74 87 87 87 87 87 77 84 81 84 87 81 81 81 84 84 87 81 81 77 77 71 58 61 52 48 48 52 74 84 55 35 42 48 74 77 55 48 55 55 58
39 55 65 74 81 87 84 84 81 81 84 84 81 84 84 81 84 84 84 81 77 84 81 71 55 42 42 48 48 52 77 90 42 35 29 39 77 74 61 48 58 61 65
45 55 68 71 81 81 77 84 87 84 84 84 77 77 77 77 81 81 81 74 68 68 68 52 45 39 52 45 55 61 81 77 26 26 26 52 87 81 68 68 55 55 48
42 65 61 71 71 68 58 71 81 77 81 84 84 77 77 81 68 77 61 81 65 58 52 52 45 39 55 61 71 77 71 42 26 35 42 77 87 74 68 61 52 39 42
45 45 68 77 71 61 61 74 81 71 81 90 90 90 87 87 74 45 68 65 52 58 58 65 65 71 74 61 68 77 58 39 26 35 39 77 84 74 68 58 45 42 39
42 52 55 74 77 65 77 81 84 84 87 87 84 90 90 84 77 68 68 65 71 58 58 74 74 58 65 65 61 58 55 32 23 32 45 87 81 71 61 68 55 55 55
45 55 55 71 87 90 87 77 84 77 84 90 87 87 90 81 84 81 84 84 84 77 87 87 77 71 61 48 48 52 52 52 45 39 61 84 81 74 65 61 65 65 58
68 65 87 97 90 90 94 94 84 90 87 87 90 90 90 84 81 81 84 87 84 77 87 87 77 71 74 65 52 52 52 45 48 42 45 81 81 74 65 61 55 61 58
61 61 84 87 97 94 90 94 90 90 94 90 94 90 94 90 81 84 84 84 81 81 77 84 77 81 74 74 65 55 55 58 61 45 32 71 81 77 77 58 58 58 58
71 81 90 94 97 94 94 94 94 90 90 94 94 90 90 90 90 84 87 84 84 87 84 87 71 74 71 61 58 58 52 58 58 52 45 39 35 71 74 61 58 52 48
90 97 94 68 90 94 97 94 94 90 94 94 94 94 84 90 90 87 84 74 77 77 81 84 84 84 74 71 68 61 58 61 58 55 58 58 39 23 52 61 68 65 52
100 100 100 94 97 97 97 94 94 94 94 94 94 90 90 81 77 84 87 87 77 81 77 65 81 77 71 71 71 65 55 61 61 48 58 55 55 55 35 45 74 74 55
100 100 100 97 97 97 100 100 94 94 94 94 94 87 84 84 81 84 84 84 74 81 81 77 74 77 77 74 48 45 71 65 71 61 61 55 55 52 39 39 55 52 71
100 100 97 97 97 100 100 100 94 94 94 94 90 90 84 77 81 84 84 87 84 81 74 81 84 74 77 81 68 65 58 65 71 71 61 61 45 55 55 48 32 32 35
100 100 97 97 97 100 100 100 97 97 97 94 90 90 87 77 74 61 90 90 87 84 84 84 84 84 74 71 71 65 42 42 61 32 55 61 48 55 55 52 45 55 48
97 100 97 97 97 100 100 100 97 100 97 94 90 90 84 84 77 84 87 84 90 87 90 87 81 74 71 77 71 74 58 42 35 55 52 52 61 58 48 42 45 48 52
97 97 100 100 100 100 100 97 94 94 94 90 90 90 87 81 81 81 81 81 84 87 90 81 84 81 77 74 71 77 71 71 48 42 45 48 52 55 52 29 32 42 45
94 94 100 100 100 100 100 97 94 90 87 90 90 90 84 84 81 77 74 74 77 84 81 77 84 84 84 77 77 68 71 71 55 48 39 42 52 42 32 35 32 39 32
87 94 97 97 97 97 94 94 90 90 90 90 90 90 87 81 77 71 71 74 71 81 77 74 77 74 74 68 71 65 58 48 55 45 39 29 19 29 45 32 32 32 32

GEFSSE_con_cape1000_228.txt.gz
Probability
23 52 81 84 84 84 84 87 90 87 94 97 97 94 100 100 97 97 94 94 90 87 84 81 77 74 74 81 90 87 81 71 74 77 81 68 74 81 84 81 61 52 68
32 68 81 87 87 84 84 87 90 90 90 94 94 100 97 97 94 94 97 97 97 94 90 87 84 84 81 84 90 81 77 77 81 77 81 68 68 77 74 71 61 52 68
48 58 77 87 87 87 84 87 90 90 87 94 94 94 97 94 94 94 90 87 94 94 90 90 87 87 87 81 77 87 81 77 74 77 61 26 48 68 74 68 65 68 65
42 52 71 84 84 81 87 84 90 94 97 90 90 94 94 94 94 94 94 90 94 90 90 87 84 74 77 81 81 77 74 77 74 58 10 23 26 68 74 71 68 68 61
48 55 81 81 84 87 87 87 94 90 94 90 94 97 94 90 90 90 94 94 90 84 84 81 77 71 65 68 68 74 77 74 58 29 6 10 29 65 65 71 71 71 68
52 68 81 87 87 87 87 87 90 90 97 97 94 90 94 94 90 87 90 87 87 84 77 77 74 71 71 74 68 74 74 61 32 3 3 10 29 65 65 68 61 61 68
55 71 77 84 87 87 90 90 90 94 94 87 87 90 90 90 90 84 90 87 84 74 68 71 77 74 77 68 65 71 71 48 6 3 3 13 42 84 65 61 61 61 52
58 74 81 87 90 90 90 90 90 94 94 87 90 87 84 87 84 84 84 81 77 65 68 65 68 71 61 68 68 77 74 61 16 3 3 13 52 84 71 61 68 65 71
58 68 71 77 77 90 90 90 87 87 84 87 87 90 84 84 84 84 84 81 81 68 61 61 61 52 58 71 71 77 77 58 13 10 6 16 65 77 68 65 58 65 58
45 52 55 65 68 71 74 87 87 87 84 84 84 84 87 81 74 81 84 84 77 71 58 55 45 48 68 77 77 81 87 45 10 6 3 29 77 77 71 74 61 61 58
42 48 48 55 52 61 71 77 81 84 84 81 74 77 74 29 42 61 68 77 68 68 65 61 58 68 71 81 87 87 55 10 3 3 3 48 84 87 74 74 68 65 48
32 42 42 45 35 35 52 52 55 58 58 55 32 39 26 13 16 42 61 71 61 61 61 68 65 74 52 19 26 61 23 3 0 3 13 77 90 84 81 77 68 52 52
26 42 35 32 32 23 29 39 39 35 32 26 23 23 19 10 10 10 10 29 29 39 19 29 48 23 23 6 3 3 3 6 0 3 23 84 94 84 74 74 71 58 61
19 35 35 19 19 13 23 35 32 29 29 19 13 16 10 6 3 3 3 6 3 6 6 6 6 6 3 0 3 3 3 3 0 3 16 84 90 87 74 71 65 61 52
16 26 29 26 19 16 23 23 35 23 23 19 13 13 10 13 10 6 0 3 3 0 3 3 0 0 3 3 3 3 3 3 3 0 13 84 90 87 74 68 61 52 52
19 29 39 32 26 26 13 10 26 29 26 19 23 16 16 10 6 10 6 3 3 0 0 3 0 0 0 0 0 0 0 3 0 0 6 48 77 81 77 65 61 68 65
19 39 42 45 32 32 23 19 29 35 39 29 13 16 16 6 6 0 6 6 10 3 3 3 0 0 0 0 0 3 3 3 3 3 10 16 42 65 77 74 68 68 65
19 35 35 55 32 26 26 32 32 32 23 16 16 23 13 10 3 6 10 6 6 10 3 3 0 0 0 3 3 3 0 0 3 6 3 3 3 19 52 74 71 71 65
32 29 32 39 29 29 39 45 35 29 29 19 19 23 26 19 23 13 13 3 3 3 3 0 6 3 3 3 3 3 3 3 3 0 3 0 0 3 6 35 65 68 65
35 29 35 35 29 29 35 35 32 32 29 23 23 26 29 32 23 16 6 3 3 0 0 0 0 3 3 3 3 3 3 3 0 0 0 0 3 3 0 3 16 35 65
42 32 39 45 39 32 45 45 42 35 39 39 29 29 32 26 26 16 19 13 3 0 0 0 0 3 3 0 3 3 3 0 0 0 0 0 0 0 0 0 0 0 6
48 48 48 48 48 48 48 55 45 42 35 45 48 35 29 26 23 35 13 16 3 0 3 3 3 3 3 3 3 3 3 0 0 0 0 0 0 0 0 0 0 0 0
61 55 65 65 68 61 68 65 61 48 48 48 39 39 23 32 23 19 19 13 6 6 3 6 3 6 3 3 3 3 3 3 0 0 0 3 0 0 0 0 0 0 0
58 65 58 61 65 61 58 61 61 61 45 42 39 32 32 35 26 19 19 23 6 6 6 3 3 3 3 3 3 3 3 3 3 3 0 0 0 0 0 0 0 0 0
61 71 61 61 68 65 58 55 52 48 42 42 29 32 29 32 32 29 29 16 13 16 13 6 3 6 3 3 3 3 3 3 3 3 3 0 0 0 0 0 0 0 0
71 77 74 65 65 65 65 61 52 48 52 48 35 29 32 29 32 32 23 16 16 16 13 6 6 6 6 3 3 3 3 3 3 3 3 0 0 0 0 0 0 0 0

GEFSSE_con_cape1000_234.txt.gz
Probability
16 42 74 84 87 77 74 87 87 97 97 94 94 90 90 84 81 81 84 87 81 77 77 81 77 68 71 77 74 77 68 65 81 77 71 65 65 71 77 74 55 48 71
26 52 74 84 84 87 84 84 94 94 97 94 94 87 87 87 87 81 81 81 77 77 77 74 71 71 77 77 71 71 71 68 74 77 74 74 68 68 65 58 52 48 65
45 48 74 81 84 90 87 87 94 100 100 100 94 97 90 90 87 87 81 81 81 81 81 74 74 77 81 77 71 71 68 74 71 74 61 39 58 68 65 61 58 58 58
42 45 71 84 87 90 84 94 94 94 97 97 94 94 90 90 90 87 87 84 84 87 81 71 81 81 74 77 81 81 81 74 77 58 19 26 32 58 65 58 52 52 52
35 58 74 84 84 90 90 90 94 90 94 90 94 90 90 90 87 87 87 87 81 81 84 77 74 77 71 71 71 74 71 65 61 16 13 23 39 71 61 55 58 55 52
42 61 77 84 87 87 87 90 97 94 94 97 94 90 90 87 87 87 84 84 84 84 77 74 74 77 81 71 71 74 71 48 26 16 13 23 42 68 61 58 58 58 48
32 58 74 84 87 87 90 94 90 87 90 90 90 87 87 87 81 81 81 77 81 74 68 68 68 74 71 71 71 74 52 39 16 13 13 26 48 77 68 65 61 61 61
39 55 68 81 84 84 84 90 87 90 87 90 87 84 84 84 81 77 71 68 68 71 74 65 65 58 68 68 74 71 58 35 16 6 10 26 48 61 68 58 55 45 52
42 45 61 65 74 87 84 87 87 84 84 87 87 84 81 84 84 87 77 61 65 65 58 61 68 61 61 77 77 71 65 42 16 10 3 19 39 52 52 55 48 58 52
45 45 42 45 48 58 71 84 84 84 81 84 81 74 77 77 77 81 77 65 58 58 61 61 61 68 71 71 71 77 68 29 13 10 6 29 55 61 48 61 55 52 45
32 35 42 45 42 42 55 71 68 71 74 74 74 74 68 16 23 45 58 74 58 58 61 65 71 77 74 71 77 84 42 10 13 10 10 35 58 55 52 55 55 45 42
26 35 32 35 35 39 48 45 45 48 35 29 23 23 13 6 19 39 61 77 61 61 61 71 77 71 35 32 39 39 10 3 6 13 13 61 74 58 52 58 55 48 39
13 29 29 32 35 32 32 39 29 26 26 19 16 13 13 0 0 3 6 13 10 26 13 23 19 13 16 10 6 3 0 3 10 10 16 65 77 65 58 52 55 45 32
13 16 16 19 19 23 23 29 29 23 16 19 10 6 10 0 0 0 0 0 0 0 3 0 0 3 0 0 3 0 3 3 3 3 10 55 81 81 58 52 52 39 32
10 16 10 10 6 6 6 10 23 13 10 3 6 3 0 0 0 0 0 0 0 0 0 0 0 0 3 3 3 3 3 3 6 6 10 55 81 77 68 55 48 48 45
13 10 10 13 13 6 3 3 6 10 6 3 3 3 6 0 0 0 0 0 0 0 0 0 0 0 0 0 0 0 3 3 10 13 16 32 65 68 74 55 52 32 35
16 13 13 13 13 6 3 3 3 6 6 0 3 3 0 0 0 0 0 0 0 0 3 3 0 0 0 0 0 3 3 6 6 13 16 19 29 55 58 61 61 55 42
16 16 13 23 13 6 6 6 3 3 3 6 6 0 6 3 0 0 0 0 0 0 0 0 0 0 0 3 3 3 3 3 3 13 16 16 16 23 32 55 61 52 48
3 10 13 13 10 6 6 6 3 3 3 3 3 10 16 10 0 3 0 0 0 0 0 0 3 0 0 3 3 3 3 3 3 3 10 10 13 16 19 29 58 58 48
3 3 10 6 10 10 6 6 6 6 0 0 6 6 13 10 3 0 0 0 0 0 0 0 0 0 0 0 3 3 3 3 3 3 3 3 3 3 3 6 23 32 45
6 3 6 6 6 6 6 6 10 13 6 10 13 10 10 10 3 6 6 0 0 0 0 0 0 0 3 3 3 3 3 3 3 3 3 0 0 0 0 3 3 10 13
6 3 10 6 6 3 6 10 10 13 10 6 10 10 10 10 10 10 3 0 3 3 0 0 3 3 3 3 3 3 3 3 3 3 0 0 0 0 0 0 3 3 6
10 6 10 6 6 3 6 16 19 23 23 19 19 13 10 13 16 6 6 3 6 3 3 3 3 3 3 3 3 3 3 3 3 3 0 0 0 0 0 0 0 3 3
6 6 10 6 3 3 6 16 19 26 26 19 13 10 6 10 10 16 10 10 6 3 3 3 3 3 3 3 3 3 3 3 3 3 3 0 0 0 0 0 0 0 0
6 10 10 10 10 10 13 16 16 23 16 16 10 13 6 6 3 10 10 6 3 3 3 3 3 3 3 3 3 3 3 3 3 3 3 3 0 0 0 0 3 0 0
16 19 16 10 10 13 19 19 19 19 23 19 16 16 10 6 10 10 13 10 10 6 6 3 3 3 3 3 3 3 3 3 3 3 3 3 0 0 0 0 0 0 0

GEFSSE_con_cape1000_240.txt.gz
Probability
13 29 71 71 74 77 87 90 94 87 84 84 81 84 87 87 84 84 81 77 74 71 81 71 74 68 65 68 68 71 68 65 71 71 65 65 65 71 71 65 58 45 68
13 29 77 87 81 81 84 87 87 90 94 87 81 77 77 74 84 84 77 74 77 74 74 77 71 68 65 71 74 65 74 71 77 77 61 61 68 71 74 68 68 58 65
23 42 68 84 84 87 90 90 94 97 94 94 84 77 81 77 81 81 81 81 81 74 74 74 68 65 71 68 68 71 68 81 74 61 58 35 42 55 65 55 61 61 61
26 39 68 81 81 90 94 97 97 97 100 94 87 84 81 77 81 81 81 81 81 77 71 74 71 65 68 68 71 71 77 77 58 48 32 19 29 45 52 52 48 52 48
35 58 71 77 81 90 94 87 94 97 100 94 87 81 81 77 81 84 77 81 77 71 71 74 71 68 71 65 65 65 65 61 52 32 19 29 48 52 55 55 52 45 45
39 48 58 84 87 87 94 90 97 97 94 90 87 87 81 81 81 74 71 71 71 71 71 71 68 65 61 61 61 61 48 39 42 16 23 29 42 55 48 42 45 39 42
39 42 58 87 87 90 94 94 90 90 90 87 84 84 84 84 81 77 71 74 71 68 61 71 58 55 58 61 58 45 52 39 19 23 26 26 68 65 52 45 45 42 35
26 39 68 84 87 87 90 90 90 90 87 87 74 81 77 81 81 81 74 74 71 61 65 68 61 58 58 58 52 42 42 26 13 13 19 29 61 48 42 35 45 42 32
23 32 48 61 81 87 87 90 90 90 94 84 84 74 74 65 81 71 65 61 58 58 55 55 48 58 61 61 58 42 35 26 26 19 13 29 45 52 48 39 42 35 42
23 32 42 52 68 74 71 84 84 84 81 84 74 74 74 74 65 65 61 68 55 48 55 42 42 48 61 65 58 39 29 29 13 10 23 23 52 45 42 45 45 39 42
23 35 26 48 58 58 52 74 77 84 77 77 81 74 65 39 32 42 39 52 48 45 42 42 48 48 61 74 55 39 32 19 6 23 35 35 42 42 42 45 52 52 39
26 23 32 39 45 45 35 81 74 61 81 81 81 61 65 61 55 35 61 61 58 61 61 55 48 48 45 39 45 55 23 10 10 23 26 42 45 35 45 48 48 42 45
26 23 35 55 55 45 55 45 58 61 77 55 58 61 68 55 39 42 48 61 65 52 39 48 42 35 23 32 39 23 10 6 10 10 16 48 48 45 52 52 45 39 39
23 29 39 52 58 65 48 48 52 52 58 61 68 61 68 61 42 39 48 42 52 55 55 42 52 35 29 16 16 23 19 10 16 16 65 48 58 55 45 39 35 39 39
29 26 48 71 74 74 81 68 52 58 45 68 74 68 52 42 42 32 52 52 29 35 35 52 45 48 45 19 23 16 19 23 23 19 48 55 55 52 52 45 35 29 29
32 39 52 68 77 87 87 87 77 55 87 55 61 65 58 55 55 52 52 58 29 32 35 48 39 35 35 42 35 23 19 23 26 29 39 45 61 55 55 42 29 32 26
52 55 61 65 74 81 84 65 61 52 45 55 77 77 68 52 48 45 48 48 39 39 45 52 26 29 32 26 32 35 29 32 32 32 35 39 45 45 58 58 45 35 29
65 71 65 42 65 71 87 87 55 55 55 55 58 68 71 68 61 65 52 42 48 42 39 42 26 26 26 32 39 45 32 45 32 42 35 42 48 29 39 48 52 42 35
68 77 77 68 65 68 84 84 68 81 74 68 68 68 71 65 58 58 55 45 52 42 39 32 32 42 39 48 29 42 39 32 42 32 32 35 39 45 45 55 48 48 45
71 71 81 81 84 87 84 84 81 77 74 68 65 68 65 61 61 61 55 58 52 45 52 55 58 61 52 52 19 23 32 32 39 39 45 39 39 42 39 39 42 39 39
71 71 87 87 87 87 87 84 77 77 68 58 55 55 61 55 52 55 48 65 55 58 58 42 58 52 55 58 39 42 29 29 35 39 48 45 35 35 45 42 45 45 42
74 81 84 84 87 84 84 81 84 77 61 55 61 65 61 58 61 52 61 58 61 68 61 68 71 58 52 48 48 45 35 48 45 26 52 55 42 35 26 23 42 45 32
71 81 81 84 81 81 77 77 77 81 74 65 65 68 68 68 65 65 52 55 58 48 58 71 65 65 55 58 58 48 45 29 42 32 32 42 45 42 35 32 26 32 35
68 74 81 87 84 81 81 77 74 77 61 68 71 68 68 65 61 61 55 55 55 45 55 45 42 45 58 52 58 68 55 32 32 29 32 32 35 39 35 26 23 35 32
65 71 77 77 81 81 77 77 74 74 71 71 68 71 71 61 68 61 61 58 58 48 48 52 48 65 58 55 52 42 48 55 32 35 35 29 29 32 35 26 29 32 26
61 65 65 77 77 77 77 74 74 77 77 74 74 71 71 65 65 61 58 55 48 45 52 61 61 65 65 65 58 48 52 48 52 45 39 35 29 23 19 32 29 26 35

GEFSSE_con_cape1000_246.txt.gz
Probability
26 39 74 71 74 77 81 84 77 74 81 81 87 84 84 84 71 65 68 74 77 77 65 65 65 61 65 58 61 55 55 65 71 68 65 61 65 65 65 52 45 48 58
29 48 77 77 77 81 81 84 77 74 77 81 81 77 74 74 65 68 71 74 74 68 58 65 65 58 58 65 61 65 65 65 68 71 65 58 61 61 68 58 55 55 65
32 58 77 81 81 81 84 87 81 77 84 84 81 84 81 74 74 71 74 71 74 65 61 68 61 65 58 65 61 48 52 55 55 65 61 23 35 68 77 61 61 61 61
32 48 61 87 90 87 94 90 94 90 77 81 90 87 84 81 74 74 74 74 81 71 55 52 55 58 58 55 48 52 42 39 48 48 35 23 16 42 58 58 58 58 55
42 55 84 87 90 90 90 97 97 87 81 84 87 84 84 84 77 77 77 77 68 74 74 55 52 58 55 45 42 42 39 42 45 48 23 13 19 48 48 52 52 55 52
42 48 81 84 81 84 87 90 97 84 81 84 81 77 81 81 77 81 81 74 68 68 71 61 52 52 52 42 39 32 29 32 45 23 35 23 23 48 48 45 42 39 35
32 52 71 84 87 90 87 90 87 87 77 77 74 81 77 77 71 68 68 68 61 61 61 55 48 52 39 35 32 32 45 55 42 26 39 35 39 58 45 48 39 39 42
35 42 71 87 87 90 90 87 84 81 81 77 68 74 71 71 65 61 61 61 58 55 58 58 58 48 32 35 32 35 52 61 35 19 23 35 52 61 45 39 26 32 32
32 45 52 74 84 84 87 87 81 81 77 74 71 68 74 74 68 61 58 52 52 55 55 52 55 45 35 32 35 39 55 71 32 23 16 19 52 55 45 39 35 32 29
32 32 45 68 68 65 71 81 77 71 71 71 68 58 61 68 65 61 58 55 48 48 42 35 39 35 35 52 45 52 65 55 19 19 26 29 61 48 42 42 39 39 32
29 45 45 61 77 55 42 61 77 77 68 68 61 58 68 68 55 55 48 65 48 42 29 35 48 52 52 55 55 61 68 29 10 19 26 48 58 45 39 42 39 35 35
32 39 48 61 55 48 45 87 87 77 87 84 87 81 77 77 77 32 58 65 61 52 55 55 65 61 48 39 42 61 29 10 13 16 26 61 61 45 42 42 42 42 32
45 45 52 68 84 61 84 87 77 84 90 84 77 81 84 74 68 58 55 65 68 65 58 68 74 32 35 35 35 35 29 16 10 10 26 58 61 52 45 45 45 39 39
45 55 58 71 84 94 84 77 74 77 84 77 77 84 84 84 74 74 74 68 77 77 84 71 74 68 65 45 35 39 35 19 16 23 32 58 61 58 39 45 42 35 35
55 58 74 87 90 94 94 90 74 87 71 81 90 87 77 77 77 77 84 87 74 81 81 84 77 71 68 65 42 35 35 23 29 32 29 48 58 55 42 35 42 42 35
45 48 81 81 90 94 94 94 94 84 87 77 84 81 84 84 84 81 74 81 84 81 84 84 77 74 74 71 52 55 48 32 42 35 19 42 52 45 45 39 29 32 29
45 68 81 84 90 94 94 90 90 87 65 81 87 77 77 81 84 81 84 81 84 84 87 81 77 68 68 65 68 52 45 48 52 48 29 29 39 48 55 52 39 42 42
65 84 87 58 87 94 94 90 90 84 90 90 90 87 81 81 74 87 87 81 77 77 81 84 71 68 61 58 61 65 58 58 45 48 48 42 32 26 29 55 55 48 39
81 87 94 94 94 90 90 94 90 90 90 90 87 87 81 77 71 77 84 81 71 74 71 61 71 71 71 61 55 52 58 58 48 35 39 48 45 42 23 32 48 55 42
77 87 94 94 94 94 94 94 94 90 87 87 84 84 74 74 65 71 74 68 68 61 61 68 71 74 74 65 39 39 48 52 55 48 39 32 39 39 29 23 26 29 32
74 84 94 94 94 94 90 90 90 87 87 87 81 74 77 77 68 74 71 71 68 71 65 58 71 61 74 71 61 48 42 45 52 55 45 42 29 32 32 35 19 16 19
87 87 90 90 87 90 90 90 90 90 87 87 81 77 74 68 68 58 74 74 68 68 68 65 68 71 71 65 68 55 48 39 55 32 39 42 29 32 35 23 39 35 16
77 81 77 81 84 84 84 84 87 87 77 77 81 77 74 74 74 77 74 74 74 68 65 65 65 71 71 68 68 58 42 29 35 45 39 35 35 39 26 26 23 32 29
71 74 81 81 81 81 84 81 77 77 77 77 77 77 74 74 74 71 71 61 68 65 74 65 65 68 68 65 68 68 68 55 32 29 29 39 39 29 23 16 19 23 26
68 71 81 81 81 81 81 81 77 77 81 81 77 77 77 77 74 71 71 68 65 68 71 71 71 74 74 71 61 65 71 55 42 35 26 26 19 23 26 26 23 23 29
65 68 74 81 77 77 81 81 81 81 81 81 81 77 77 77 77 71 71 71 68 71 68 68 74 77 74 74 71 68 55 48 42 39 32 23 19 23 23 26 29 26 26

GEFSSE_con_cape1000_252.txt.gz
Probability
26 48 74 81 84 81 81 81 81 81 81 81 84 81 81 84 77 71 84 68 71 61 55 58 58 52 65 52 55 55 61 61 65 61 71 65 71 68 65 71 61 52 74
35 58 81 84 81 81 84 81 81 81 84 84 81 81 81 84 84 77 74 68 61 65 65 55 48 61 55 52 55 55 52 58 65 61 61 52 61 68 68 61 61 55 71
48 55 81 84 77 81 81 84 81 84 84 84 84 84 77 84 77 77 68 65 61 58 61 55 52 58 58 58 52 52 45 52 61 68 45 23 45 61 65 61 61 65 71
32 42 68 84 84 90 87 84 87 87 84 87 90 84 87 77 74 74 68 71 68 65 55 58 55 55 52 48 52 45 48 52 52 39 16 16 26 58 65 65 71 71 71
35 55 74 84 90 94 87 84 87 87 90 87 90 90 87 84 77 71 71 74 71 61 48 42 42 39 42 42 39 52 55 65 55 23 6 10 16 61 68 65 61 65 61
32 65 84 87 90 87 81 77 74 77 81 81 84 87 81 84 81 74 71 74 77 61 52 52 45 42 52 55 42 52 52 45 32 10 3 10 13 58 65 58 58 52 48
42 55 84 87 90 90 84 81 84 81 77 77 77 81 81 77 71 68 74 71 71 65 61 52 48 45 55 58 55 48 52 32 13 10 3 10 23 61 52 48 52 52 48
52 61 71 87 90 87 87 90 90 87 81 74 77 77 74 77 71 65 58 61 61 68 58 42 42 42 42 55 61 65 65 26 13 6 3 10 32 65 45 42 45 39 42
45 55 61 74 81 81 84 87 84 84 84 84 77 77 71 68 65 65 58 58 65 65 52 45 35 35 48 61 61 68 68 45 13 6 3 13 29 52 52 45 42 35 29
32 39 42 58 65 65 77 74 84 81 81 77 74 74 74 65 68 58 55 55 55 58 58 39 39 42 61 58 58 71 68 35 16 6 3 13 48 55 45 35 32 35 32
23 23 26 32 39 42 42 71 77 81 77 71 61 74 61 29 26 45 52 52 58 52 45 45 48 52 58 55 58 61 42 6 0 3 3 29 58 52 39 39 35 29 32
16 16 16 19 16 19 35 42 39 42 32 23 23 23 13 10 6 32 52 65 61 58 52 45 52 48 32 13 19 35 6 0 3 6 6 52 65 48 35 42 39 29 29
10 23 16 13 13 10 6 19 16 6 6 3 10 10 10 10 6 6 3 26 29 32 26 26 35 16 3 0 0 0 0 3 3 3 10 55 65 48 45 52 42 39 32
10 10 10 13 13 10 10 13 6 16 6 10 10 6 3 3 6 3 0 3 3 3 0 0 0 0 0 6 0 3 3 3 3 3 6 55 68 58 42 39 39 35 35
6 13 13 19 23 13 16 16 19 16 19 16 16 16 13 13 6 3 3 3 3 0 0 0 0 3 3 3 3 3 3 3 3 3 13 55 61 58 52 45 29 29 23
16 29 26 23 19 19 16 16 13 19 19 26 13 16 10 10 13 16 6 6 10 10 6 3 3 3 3 3 3 6 3 3 3 3 3 23 58 55 55 45 42 39 26
23 26 29 19 16 23 19 19 26 23 19 19 13 19 16 19 16 16 10 10 10 10 6 6 6 6 3 3 3 3 3 3 3 3 3 3 13 52 55 48 42 35 32
16 26 29 39 23 29 23 19 19 19 23 19 16 19 19 16 16 23 16 10 13 10 13 10 13 13 6 6 6 3 3 3 3 3 0 0 0 3 23 48 45 42 35
16 32 26 29 26 32 19 23 23 26 26 23 23 23 23 16 16 16 16 16 16 16 13 16 10 13 13 13 10 6 3 3 3 0 0 0 0 0 6 13 39 42 39
16 19 29 29 26 26 16 19 26 23 23 19 19 23 23 26 29 16 19 19 19 19 16 10 6 6 6 6 10 6 6 6 0 0 0 6 3 6 0 0 6 23 35
16 16 23 26 32 35 35 29 32 23 16 23 23 19 26 23 23 23 23 13 16 13 13 10 10 6 6 6 6 6 6 0 3 3 3 3 3 3 3 3 0 3 10
16 23 19 26 32 35 32 29 29 26 26 23 23 29 19 23 23 26 26 6 16 10 10 10 10 6 6 6 6 0 0 0 0 3 3 3 3 3 3 3 0 0 0
23 32 42 29 35 39 39 35 39 26 29 32 19 19 19 19 23 19 23 19 16 19 13 6 6 6 6 6 0 0 0 0 0 3 3 3 3 3 3 3 3 3 3
26 32 32 39 39 35 48 45 42 29 29 23 26 19 16 26 29 19 16 16 16 13 13 6 10 10 3 0 0 0 0 3 3 3 3 3 3 3 3 3 3 3 3
32 39 35 35 48 45 45 45 39 26 19 16 23 26 19 26 26 23 16 13 13 19 19 16 6 6 3 0 3 3 3 0 3 3 3 3 3 3 3 3 0 3 3
45 52 45 42 48 45 45 42 39 35 35 29 29 26 26 23 23 23 26 19 16 16 19 19 13 10 13 10 6 0 3 3 3 3 3 3 3 3 3 3 0 3 3

GEFSSE_con_cape1000_258.txt.gz
Probability
3 23 58 71 74 71 74 77 81 81 81 87 77 71 71 71 68 61 68 58 55 55 55 61 58 52 52 61 61 58 58 65 61 52 55 65 61 61 61 61 58 55 74
16 42 65 81 68 71 74 81 77 81 81 84 74 68 68 71 65 61 58 55 55 55 45 45 48 58 55 48 55 52 52 58 65 58 58 58 58 61 55 61 58 55 61
29 45 58 77 77 81 84 81 81 77 81 74 77 74 77 68 68 58 58 61 45 45 35 42 42 48 58 52 52 55 48 52 58 52 42 32 52 55 61 55 58 65 65
23 32 55 71 84 81 77 77 74 77 81 74 71 68 77 71 77 71 58 55 58 52 45 48 42 45 42 48 48 52 48 45 48 32 19 19 32 52 61 58 58 58 52
26 35 52 65 74 74 74 71 71 77 81 71 74 81 71 68 71 65 58 52 52 42 48 42 45 45 52 35 39 45 55 48 42 16 13 16 29 42 52 48 52 55 52
29 42 61 77 81 74 68 68 71 68 71 68 71 68 71 61 48 55 52 48 39 48 42 45 39 32 42 45 45 48 45 45 19 13 10 16 29 42 45 45 45 45 45
19 35 65 81 77 74 71 68 68 68 68 65 74 77 61 61 58 45 39 48 45 42 42 39 35 35 39 45 52 39 45 39 13 10 10 13 35 48 45 42 42 39 42
29 45 58 77 77 77 71 65 65 65 71 68 61 71 68 58 55 42 39 39 45 45 52 42 39 42 39 45 48 42 35 32 13 6 10 13 39 45 32 45 42 39 45
29 32 39 52 58 65 71 65 68 61 65 71 71 68 65 65 58 52 52 39 35 39 42 45 45 42 35 48 52 45 42 16 6 6 6 19 39 45 39 39 35 35 35
26 26 29 35 35 29 55 71 74 74 68 77 74 68 65 65 45 45 42 39 42 35 39 39 39 35 32 45 45 45 39 19 6 6 6 26 39 35 39 39 29 35 35
16 19 16 16 19 23 35 58 52 65 71 65 45 71 35 16 13 23 29 48 42 39 42 42 42 48 39 42 48 55 23 13 10 6 6 26 45 39 35 32 29 32 32
13 10 10 10 6 10 35 19 10 10 10 13 10 13 16 10 10 13 29 45 42 45 42 45 55 39 26 13 19 19 6 6 6 6 6 35 45 29 35 29 32 32 32
6 13 6 6 6 3 3 3 3 6 6 6 3 3 3 3 6 6 10 6 3 13 13 6 16 6 6 3 3 3 3 6 6 6 10 35 58 45 42 29 35 29 29
6 10 10 3 3 3 0 0 0 3 3 3 3 3 3 6 6 3 3 6 0 0 0 0 0 0 0 3 3 3 3 3 6 6 13 42 61 48 39 35 26 26 26
6 6 10 3 0 0 0 0 0 0 0 3 3 0 0 3 3 6 6 0 0 0 0 0 0 3 3 3 3 3 3 3 6 6 10 29 45 52 42 29 23 23 26
0 6 3 0 0 0 0 0 0 0 0 3 3 0 6 3 3 3 3 3 6 6 3 3 3 3 3 3 3 3 3 3 3 3 3 23 35 42 42 32 19 19 19
6 6 3 0 0 0 0 0 0 3 3 3 3 6 6 6 6 6 6 10 6 6 6 6 10 10 6 6 6 3 3 0 0 3 3 13 16 26 29 35 26 19 16
3 10 10 3 0 0 0 0 3 3 3 6 3 6 6 6 6 6 10 10 10 10 10 13 10 10 10 6 6 6 6 0 3 0 3 3 10 10 23 35 32 29 23
3 6 6 6 3 0 3 0 3 0 3 3 6 6 6 10 13 6 16 13 13 16 13 13 10 6 10 10 10 6 3 3 6 6 6 6 3 6 10 13 39 39 29
3 3 3 6 3 0 0 0 3 6 6 6 10 10 10 10 10 10 13 10 10 13 10 10 6 6 6 6 3 3 0 3 3 3 6 6 6 6 3 3 10 26 29
0 0 10 6 6 3 6 10 10 13 10 10 6 10 10 6 6 6 10 6 10 10 10 10 6 6 3 0 0 0 0 0 0 3 3 3 3 3 3 6 6 6 16
6 3 10 13 10 6 6 10 10 13 6 6 10 10 10 10 6 16 3 0 3 6 6 6 6 6 3 0 0 0 0 0 0 0 3 3 3 3 3 3 6 6 6
6 10 19 13 10 6 6 10 13 10 10 10 10 10 6 10 10 3 6 0 6 0 3 6 6 6 0 0 0 0 0 0 0 0 0 3 3 3 3 3 3 6 6
16 19 16 13 13 10 10 13 13 10 13 16 10 10 10 6 10 10 6 3 3 3 3 6 3 3 3 0 0 0 0 0 3 0 0 3 3 3 3 0 0 3 6
13 16 16 16 13 10 10 10 6 13 13 13 13 13 10 6 10 10 10 6 3 3 6 3 3 3 3 0 0 0 0 0 0 3 3 3 3 3 0 0 0 0 0
13 10 10 10 10 10 10 10 10 10 10 13 13 13 10 10 10 10 10 13 10 6 6 3 3 3 6 0 0 0 0 3 3 3 3 3 3 3 0 0 0 0 0

GEFSSE_con_cape1000_264.txt.gz
Probability
13 26 48 58 74 74 74 74 81 71 77 74 71 74 68 65 65 52 61 58 58 58 55 61 61 58 65 58 55 65 55 48 61 61 58 61 58 45 45 52 45 35 55
10 29 52 65 68 65 68 71 77 77 77 77 71 71 74 55 58 55 58 61 55 52 52 48 55 55 58 55 42 52 48 48 48 48 58 52 58 52 45 45 42 52 58
16 26 32 65 68 65 68 71 71 68 68 71 77 71 68 58 55 61 58 55 48 45 45 45 55 45 48 48 52 45 48 45 42 42 42 39 42 52 52 45 48 55 61
10 29 29 48 65 61 68 65 71 71 71 71 71 77 71 65 58 55 42 52 55 52 55 48 48 55 48 48 45 48 42 42 35 35 32 29 32 42 52 52 45 45 48
16 29 42 48 58 58 61 68 71 74 71 74 77 74 74 61 61 55 52 45 45 45 42 45 42 42 48 48 52 48 48 39 32 32 29 39 55 45 48 45 45 45 42
19 16 39 52 68 71 68 68 68 68 71 68 68 68 58 48 55 58 55 52 39 39 35 39 39 35 39 42 48 42 32 35 29 19 26 32 45 48 42 52 39 45 48
13 19 35 58 58 65 68 61 68 68 71 68 58 65 55 48 48 42 42 42 45 35 42 35 35 45 48 42 42 45 39 39 13 10 29 39 35 45 39 42 42 39 39
19 26 32 58 58 61 61 68 68 74 65 65 55 61 58 55 42 29 32 29 32 32 32 39 39 42 48 42 52 48 48 32 10 6 16 35 39 39 32 35 42 32 32
19 26 19 19 52 61 61 65 71 74 74 68 68 58 61 52 45 32 35 32 35 45 39 35 39 32 32 32 35 45 42 35 3 6 10 23 39 35 32 29 35 35 35
16 32 29 39 39 35 39 61 71 74 74 71 65 58 48 48 45 23 32 52 45 45 32 29 35 32 29 26 29 35 29 29 10 3 10 29 48 39 32 35 32 35 35
19 29 26 26 29 29 29 42 52 68 58 71 71 55 55 52 35 29 16 45 26 26 29 42 35 35 32 32 35 35 23 19 6 10 23 29 42 32 42 39 32 32 32
13 23 23 23 23 26 23 48 55 35 61 68 71 65 71 71 52 26 26 42 39 29 32 35 39 29 23 26 29 35 23 23 16 10 26 39 39 35 39 42 32 32 26
16 23 35 32 42 39 42 39 52 48 58 52 65 65 74 48 48 39 45 42 52 29 32 29 23 23 13 13 26 23 19 19 26 19 26 26 32 26 23 29 23 29 26
23 23 26 32 55 52 55 45 55 42 45 48 68 58 48 52 52 45 55 45 45 58 58 32 35 26 19 10 13 16 13 19 23 23 42 26 35 26 29 29 26 26 19
23 19 35 52 52 58 65 45 32 48 32 55 65 52 55 45 45 48 61 55 42 35 35 45 32 32 26 16 10 19 16 16 16 13 23 39 29 32 32 32 26 26 26
19 23 32 42 55 65 61 65 58 42 68 52 52 58 58 42 48 45 48 48 35 35 39 42 39 35 23 19 16 13 16 13 13 19 16 29 29 26 29 26 26 26 23
23 32 52 48 52 61 61 55 45 45 48 52 61 68 58 48 61 55 48 42 35 39 52 45 45 39 26 19 16 16 16 19 16 23 23 29 29 23 23 23 23 16 16
26 48 48 29 48 68 74 77 55 68 65 58 65 65 65 61 61 68 52 48 52 35 42 45 39 35 39 32 23 23 19 23 23 23 23 26 19 16 23 19 26 19 19
39 55 58 55 58 65 74 81 71 77 71 61 61 71 68 65 52 52 58 58 48 39 42 29 45 42 42 35 23 29 19 23 26 13 19 16 26 19 19 32 26 32 32
39 48 65 71 74 74 74 74 77 71 74 65 68 68 61 61 52 45 55 65 39 35 52 52 55 55 45 35 10 6 13 13 19 19 16 19 26 19 23 23 32 23 26
39 61 68 74 77 74 74 77 74 65 65 58 61 61 61 52 55 52 48 61 48 45 58 42 52 45 42 35 29 19 19 10 19 29 29 23 16 19 16 29 26 35 32
61 71 71 77 74 77 84 81 74 74 58 55 61 71 61 58 55 52 55 58 58 68 65 58 65 45 42 39 32 23 19 29 35 6 19 23 19 16 19 16 32 42 39
55 71 58 77 77 77 77 74 77 71 71 55 55 65 61 55 55 58 52 58 61 58 58 65 61 58 52 45 35 26 32 19 23 13 23 26 32 32 29 29 26 35 35
55 61 74 77 77 74 74 74 77 71 68 65 68 55 61 58 58 55 58 58 58 55 61 48 52 55 55 45 48 48 35 35 32 19 16 23 26 32 29 16 19 26 35
45 52 71 77 77 77 77 74 74 68 68 58 65 71 68 65 61 48 55 65 61 55 58 55 52 61 45 48 45 39 35 42 32 39 32 19 23 23 26 26 16 19 19
42 55 61 77 77 81 81 74 77 71 74 71 68 58 48 45 45 39 45 61 52 52 52 58 65 58 58 61 65 55 45 52 42 35 35 23 19 19 19 16 19 16 16

GEFSSE_con_cape1000_270.txt.gz
Probability
26 26 65 61 68 68 74 65 68 61 58 52 58 58 74 68 71 65 55 61 65 61 58 58 55 52 52 55 52 45 45 42 45 45 48 45 52 48 42 45 42 39 71
29 29 61 65 68 68 65 65 65 61 71 58 55 52 68 61 65 68 61 58 58 58 58 55 48 48 52 52 55 42 42 35 42 45 45 42 48 42 45 42 39 45 68
26 29 45 65 68 71 68 65 65 65 68 61 55 52 61 65 65 58 58 55 58 48 39 39 42 45 45 42 42 42 42 35 39 48 45 29 29 45 48 42 48 58 61
23 29 39 65 65 65 65 58 61 61 61 58 58 58 55 48 55 55 48 45 48 42 35 32 32 32 39 35 35 32 32 42 45 48 35 19 23 39 48 42 42 55 58
23 32 48 65 65 68 68 68 65 61 61 55 55 65 58 52 55 58 52 42 42 32 42 45 26 29 29 32 35 32 35 35 39 35 26 32 19 45 45 48 48 52 52
13 16 45 61 61 68 65 65 68 71 71 61 58 61 52 42 35 39 35 39 35 42 32 32 29 42 39 39 39 32 29 32 29 23 26 35 26 42 52 45 42 42 48
13 13 29 65 58 61 61 65 65 74 68 61 58 42 45 35 39 42 35 35 26 29 39 32 35 45 39 42 32 26 32 32 29 19 29 35 45 52 52 52 45 52 42
13 13 32 58 55 61 65 68 65 68 68 55 48 42 45 29 32 35 29 45 23 23 29 39 48 48 48 42 39 32 39 39 23 19 26 29 39 55 42 42 42 35 26
16 16 32 35 48 61 61 68 71 71 65 52 48 42 42 32 35 39 35 42 35 35 39 32 42 39 32 39 39 35 32 52 16 16 10 13 35 42 42 39 39 29 32
13 19 26 32 48 45 45 65 71 55 58 55 52 39 39 48 45 45 48 42 32 42 45 29 29 26 32 39 45 48 42 42 16 6 16 16 42 45 42 35 35 32 32
23 29 26 39 42 39 26 42 65 61 52 55 58 52 45 42 26 26 19 39 29 29 35 39 32 32 23 35 39 45 29 16 10 19 16 39 42 35 42 39 32 26 23
23 19 39 45 39 26 26 71 71 58 68 71 68 65 61 65 45 13 35 45 42 32 26 32 39 26 19 19 26 35 16 6 16 19 13 39 39 39 32 35 29 29 29
29 32 26 45 55 48 55 55 74 74 74 71 71 68 68 58 45 42 42 42 45 35 32 32 32 26 23 29 29 19 19 10 10 13 16 45 42 39 32 39 32 29 32
32 29 29 48 71 77 65 58 61 61 71 61 68 58 61 74 65 55 65 55 45 45 48 35 39 35 26 29 32 16 13 13 10 23 19 42 42 39 32 39 29 26 23
45 39 52 74 77 84 84 77 55 71 61 61 65 61 65 65 65 55 58 61 55 55 48 48 42 35 39 32 32 19 16 13 16 16 13 35 45 39 35 35 29 26 26
23 35 52 74 84 87 84 84 81 71 77 71 71 65 61 61 68 68 65 58 58 58 65 52 45 39 48 42 35 26 19 13 19 23 19 23 39 42 39 39 29 23 23
32 61 61 65 74 84 84 77 71 68 68 74 74 65 71 68 77 68 68 68 68 61 55 58 45 52 52 42 42 29 23 23 26 26 23 29 23 32 39 35 32 32 19
55 71 65 29 71 87 90 87 81 74 81 81 74 77 68 71 71 74 68 68 68 61 58 61 68 58 52 52 52 42 32 32 32 26 29 32 23 16 19 35 35 35 32
71 74 74 84 87 90 90 90 87 84 84 77 81 81 81 74 65 68 68 71 65 68 58 52 58 65 58 55 48 52 45 42 39 32 29 32 23 23 23 23 32 35 32
77 81 84 84 90 90 87 90 84 87 81 81 84 84 81 74 68 74 74 68 65 68 68 71 68 68 68 65 29 29 42 42 48 42 32 26 23 19 26 23 19 26 35
74 87 87 87 87 90 90 90 87 84 84 81 81 81 77 74 71 81 68 71 74 71 71 61 68 58 61 65 52 45 52 39 39 45 35 26 32 32 29 29 19 16 13
81 87 87 87 87 90 90 87 87 84 84 84 84 77 77 77 74 58 77 71 74 77 74 77 74 74 68 61 52 48 42 35 32 26 32 32 32 39 32 26 35 45 35
68 84 77 87 87 90 90 84 81 84 81 81 77 81 77 71 74 74 74 74 74 74 77 74 71 77 68 68 65 61 55 39 45 45 26 32 32 39 42 32 35 39 35
68 77 87 87 87 84 87 87 77 81 81 81 81 81 74 71 74 74 71 74 74 71 74 71 65 65 68 58 55 68 61 52 32 29 32 32 39 35 32 29 26 35 35
55 68 84 87 84 81 84 84 84 84 84 84 81 77 74 77 65 74 68 65 68 68 68 68 71 74 71 58 55 58 52 55 48 32 32 26 29 32 32 32 32 29 32
55 58 71 84 81 81 81 81 81 81 81 81 81 77 74 68 68 65 58 68 68 65 68 65 68 68 71 65 65 55 52 52 52 39 32 26 26 29 23 26 29 26 26

GEFSSE_con_cape1000_276.txt.gz
Probability
10 32 58 68 74 68 65 58 52 58 68 74 71 68 71 71 68 61 68 61 61 68 65 77 68 52 65 65 61 55 48 48 52 42 42 48 52 58 52 58 55 55 74
16 45 65 74 74 71 61 55 58 65 68 74 65 68 74 74 68 68 58 58 65 65 74 65 58 58 58 52 52 52 52 48 45 45 45 39 52 48 58 58 45 42 71
19 39 61 74 71 71 68 58 71 65 71 68 71 68 71 77 61 61 55 68 71 68 61 48 48 52 52 55 52 55 58 42 39 42 45 26 35 45 52 52 48 52 55
19 19 48 71 65 68 65 61 61 65 55 61 65 68 71 74 68 61 61 61 58 55 55 42 45 45 52 48 45 48 48 45 45 42 10 13 16 45 45 52 45 52 52
19 23 48 68 71 65 55 65 68 61 58 61 58 61 58 58 65 45 52 58 58 55 39 48 39 42 45 42 45 42 48 42 52 29 10 10 13 45 55 55 55 52 52
26 35 55 68 68 71 68 68 77 71 65 65 58 52 55 55 55 55 52 39 52 39 32 39 42 39 42 42 42 45 45 42 26 6 6 10 13 48 55 48 52 48 52
26 35 48 68 71 68 68 71 68 71 58 52 52 58 58 55 48 48 42 32 39 35 35 39 32 35 39 42 45 55 48 45 10 6 3 10 19 52 45 45 52 48 48
23 29 48 68 71 71 65 71 71 81 68 55 48 52 55 45 39 35 39 35 39 39 42 35 39 39 48 45 42 42 42 35 13 10 0 6 23 58 39 42 42 45 45
10 19 23 42 55 68 65 71 81 65 65 58 45 45 52 55 52 42 42 35 35 42 42 35 26 35 32 45 48 45 45 39 13 6 3 6 32 45 35 42 45 35 35
6 10 13 16 23 26 35 61 68 68 61 52 48 52 55 55 48 48 39 39 42 39 35 29 23 35 42 42 48 42 39 29 6 6 6 10 42 39 42 39 39 39 29
6 10 10 6 3 6 16 32 45 45 52 48 52 55 42 10 10 16 23 39 45 42 42 39 35 39 45 45 45 45 19 3 3 3 0 10 45 42 42 35 32 39 35
3 6 10 6 3 3 16 16 16 13 13 6 6 6 6 6 3 10 29 52 42 39 39 52 39 32 23 13 13 16 6 3 3 0 0 26 39 48 35 45 42 32 29
3 6 3 6 0 0 0 3 10 0 0 0 6 6 3 3 0 6 3 16 19 23 16 16 19 13 10 3 0 0 3 3 0 0 0 39 45 39 39 26 35 32 39
10 10 10 6 3 3 0 3 3 0 3 3 6 6 3 6 3 0 0 0 3 3 6 6 6 6 6 3 3 3 3 3 3 0 0 35 42 39 29 32 32 35 29
10 10 13 10 10 0 3 6 0 0 3 0 3 10 6 3 3 0 0 0 3 3 6 3 6 6 6 3 3 3 3 3 3 0 0 35 45 45 39 42 39 35 32
6 13 13 13 10 6 3 6 3 3 3 3 13 10 6 3 3 0 0 3 3 0 6 6 10 10 3 3 3 0 0 0 0 3 3 19 39 42 42 42 39 35 32
3 13 13 10 10 6 6 10 13 10 10 10 16 23 13 6 3 0 0 3 6 3 6 10 10 6 6 3 3 0 0 0 3 3 6 10 19 35 42 42 42 42 42
6 13 10 16 10 6 6 6 19 19 13 16 16 16 19 13 6 3 3 10 6 6 10 6 6 6 6 0 3 3 3 3 3 3 3 3 6 10 26 42 42 39 39
3 10 13 23 26 16 29 19 16 19 23 19 19 19 19 19 10 10 6 10 13 10 10 6 6 6 6 3 0 3 3 3 6 6 3 3 3 6 6 23 39 39 42
16 16 23 29 26 29 29 23 26 16 19 19 23 23 23 23 16 13 13 10 13 6 6 3 3 6 6 3 3 3 3 6 0 3 3 3 3 3 3 13 19 29 42
23 19 26 35 32 29 32 35 23 19 19 19 19 29 16 19 16 13 16 13 13 6 6 6 10 6 6 3 0 3 3 3 0 0 0 3 3 3 3 6 6 6 13
19 29 32 35 32 35 39 42 19 23 16 16 16 13 16 16 19 19 13 13 10 10 10 3 6 6 6 3 3 0 3 3 3 3 0 0 3 3 3 6 6 3 6
29 35 39 32 45 42 45 42 32 26 32 32 19 16 19 19 19 16 19 19 19 13 16 10 13 10 6 3 3 3 0 0 3 0 0 0 3 3 3 3 3 3 0
29 35 32 42 42 48 42 42 35 29 26 23 16 13 16 23 19 19 16 23 23 19 23 23 19 16 10 10 6 3 3 0 3 3 0 0 0 3 3 3 3 3 3
35 35 39 39 35 45 48 39 35 35 29 23 23 19 16 16 19 23 26 19 13 13 16 19 26 23 19 13 13 10 10 3 0 3 3 0 3 0 0 0 0 3 3
35 42 48 42 45 48 52 45 35 35 29 26 23 26 26 19 19 23 23 19 19 23 23 26 29 26 23 19 19 16 13 10 6 0 0 0 3 3 3 0 0 3 3

GEFSSE_con_cape1000_282.txt.gz
Probability
0 3 35 45 48 45 48 52 52 52 61 65 61 68 61 61 65 55 58 61 48 52 55 65 65 58 58 55 55 58 55 58 61 55 58 55 61 65 68 74 65 48 81
0 13 39 45 55 52 55 45 58 61 61 65 61 65 65 71 71 61 55 61 52 45 48 48 52 58 61 65 58 55 65 55 55 52 55 55 61 68 61 58 61 48 68
10 16 32 52 55 52 52 55 65 68 61 58 58 61 68 65 58 52 61 55 55 48 48 55 55 55 61 61 52 48 58 52 48 45 39 32 48 58 58 55 58 61 68
13 6 19 48 48 45 55 61 61 52 58 55 61 58 61 65 58 45 48 58 48 45 39 42 48 55 48 55 52 58 45 42 42 39 16 19 19 42 61 58 55 58 68
13 10 16 42 48 39 52 55 55 55 55 55 58 61 58 61 65 52 48 52 45 35 39 42 52 61 58 58 55 48 45 45 42 16 6 10 16 42 48 52 55 48 55
10 10 16 42 42 42 52 52 52 58 52 55 48 52 61 61 52 42 48 52 52 39 45 52 58 61 61 58 58 58 52 45 16 6 6 6 16 48 61 65 52 52 45
10 16 23 39 42 45 45 52 48 52 45 45 52 55 65 61 55 55 58 61 45 42 45 52 48 55 58 61 55 55 48 39 10 10 10 10 13 45 48 55 52 45 35
6 16 23 48 52 48 45 48 48 48 45 45 48 48 55 58 58 48 58 55 48 42 45 52 48 45 48 52 55 55 45 35 10 6 10 10 23 45 45 45 39 42 39
6 10 10 23 23 39 45 48 52 55 45 52 55 61 52 48 48 61 55 48 42 39 35 42 45 48 55 52 55 52 52 35 16 10 10 10 23 48 42 42 32 35 39
6 6 6 10 13 16 19 35 45 55 55 52 55 55 48 39 29 39 45 45 35 35 39 42 42 42 42 45 58 52 45 29 10 6 6 10 29 26 35 35 29 32 35
3 6 3 6 6 10 10 16 23 32 39 45 39 55 35 6 6 16 26 39 29 35 39 45 45 39 39 42 42 45 19 6 6 6 6 10 26 23 29 32 29 35 39
3 0 6 6 0 0 6 6 10 10 10 10 6 6 0 0 0 10 29 45 32 32 29 39 32 29 13 13 29 23 6 3 3 6 6 13 29 29 26 32 35 32 32
0 0 0 3 0 0 0 0 0 0 0 0 0 3 0 0 0 0 0 0 0 6 6 16 13 10 3 3 3 3 6 6 6 6 6 19 29 35 32 32 35 32 26
0 0 0 3 0 0 0 0 0 0 0 0 0 3 3 0 0 0 0 0 0 0 3 6 6 3 3 3 3 3 3 3 3 3 3 23 29 32 32 26 35 29 32
0 3 3 6 0 0 0 0 0 0 0 0 3 3 3 0 0 0 0 0 0 0 3 3 6 3 3 3 3 3 3 3 3 3 6 13 32 32 26 29 26 29 26
0 3 6 6 0 0 0 0 0 0 0 3 3 0 0 0 0 0 0 0 0 0 3 3 6 3 3 3 3 3 3 0 0 3 3 10 23 32 32 32 35 26 35
0 3 3 6 0 0 0 0 0 0 3 3 0 0 0 0 0 0 0 0 0 0 3 3 6 3 3 3 3 3 0 0 3 3 3 6 16 26 35 32 42 42 39
3 3 6 13 6 0 0 0 0 3 3 0 0 3 6 3 0 0 0 0 3 3 3 6 6 3 3 3 3 3 3 3 3 3 3 6 10 10 26 29 35 39 39
10 10 10 10 6 0 3 3 3 3 6 3 3 6 6 6 3 0 0 3 3 3 6 6 3 3 3 3 3 3 3 6 3 3 3 3 6 10 10 16 29 39 32
10 10 13 13 10 6 6 3 3 0 3 3 3 3 3 6 6 3 3 0 0 3 6 0 3 3 3 3 3 3 3 3 3 3 3 3 3 3 6 13 19 19 29
16 13 6 10 3 3 3 3 3 3 3 10 6 3 3 3 10 6 10 3 0 0 3 0 3 3 3 3 3 3 0 3 3 3 3 3 3 3 3 13 13 10 13
10 10 6 3 3 3 3 3 3 3 3 10 6 6 6 6 10 10 6 6 3 6 6 3 6 3 3 3 3 3 3 3 0 3 0 3 3 3 3 6 6 10 10
10 10 10 3 3 3 3 6 6 6 10 6 10 10 10 6 10 13 13 6 6 3 6 6 10 10 6 3 3 3 3 3 0 0 3 3 10 10 6 10 6 3 6
10 6 3 3 6 6 3 6 10 6 6 10 3 6 10 10 10 13 16 10 10 13 10 13 16 13 13 10 6 3 3 3 10 10 3 3 3 3 6 3 10 3 3
10 6 6 6 6 3 6 6 6 10 6 6 10 10 13 10 10 10 16 10 13 13 10 6 13 10 10 10 10 6 6 6 3 6 6 6 3 3 3 3 6 0 0
3 6 6 6 0 0 3 3 6 6 10 10 10 10 10 10 6 6 10 10 10 10 10 6 10 13 13 10 13 10 10 10 13 3 10 6 6 10 6 6 3 0 0

GEFSSE_con_cape1000_288.txt.gz
Probability
0 6 19 32 32 32 42 61 65 68 58 58 55 55 52 52 42 52 52 58 58 61 52 55 55 58 61 61 55 55 55 55 58 58 55 48 48 58 61 74 68 48 84
3 13 26 35 35 42 45 61 61 61 61 55 61 61 55 52 45 52 58 58 48 45 45 48 55 48 55 58 55 52 48 55 52 55 58 48 48 65 61 61 61 58 81
6 16 26 39 45 48 48 48 52 52 58 55 58 55 58 61 48 42 55 52 45 55 45 48 52 48 52 55 58 55 55 55 45 39 42 19 26 45 55 42 55 68 74
10 16 26 42 48 45 48 52 58 52 55 61 55 61 55 58 65 58 48 48 48 42 45 42 52 52 52 48 55 52 48 48 42 35 13 10 23 32 48 55 55 65 65
13 13 29 45 39 42 48 48 48 48 48 58 55 61 55 42 48 45 45 61 45 39 32 45 39 52 61 55 61 55 45 45 29 19 10 19 29 35 55 55 52 52 55
10 10 23 35 45 42 45 48 42 45 45 45 52 52 52 52 45 48 52 55 45 35 32 39 48 45 52 45 52 48 48 39 23 6 16 16 23 48 48 48 45 48 45
10 6 13 29 42 39 48 48 42 39 42 48 55 58 55 48 45 52 52 52 48 39 39 45 52 52 58 55 52 48 42 32 10 6 6 13 29 48 42 42 42 35 39
6 10 13 23 42 45 42 42 42 42 39 45 55 55 55 55 48 42 42 45 42 39 42 45 48 52 55 55 55 52 35 26 3 6 6 16 23 42 39 45 42 35 32
6 13 16 16 16 35 39 35 45 42 42 42 45 52 58 55 48 52 45 45 42 35 39 35 45 52 55 55 55 48 39 13 10 10 6 10 23 23 29 39 45 39 23
10 10 10 16 23 26 29 32 39 39 42 45 48 55 45 45 45 45 35 48 42 39 32 32 29 45 45 52 42 39 29 32 13 10 10 10 13 23 26 26 29 26 23
3 6 10 13 23 23 16 13 32 48 42 48 48 39 48 45 29 29 32 42 45 29 32 39 32 39 42 42 42 35 23 32 16 26 19 13 23 23 19 19 16 19 19
3 10 16 23 26 29 10 26 39 32 48 61 58 52 58 52 39 23 35 42 39 23 32 35 29 23 32 32 26 29 29 19 16 16 26 26 26 19 16 16 23 19 16
10 3 16 23 39 35 39 29 35 45 52 52 55 65 65 45 32 32 35 42 39 19 23 26 19 26 26 26 19 16 13 13 13 23 26 29 26 23 16 23 26 29 23
13 3 10 23 32 39 32 32 35 35 45 45 52 55 52 48 42 35 45 35 32 23 26 19 26 26 29 16 16 13 13 13 13 19 29 16 26 32 29 23 19 23 29
13 10 19 32 29 42 52 52 26 39 42 52 52 42 45 42 42 39 55 35 32 32 29 35 32 29 32 26 16 13 13 10 6 6 19 19 23 19 29 29 23 26 26
16 23 19 23 39 61 58 55 52 35 55 45 42 42 45 42 45 42 42 45 35 32 32 35 39 35 19 19 13 10 13 3 10 10 13 19 19 19 23 29 29 26 35
26 32 32 29 35 52 52 48 45 39 29 35 39 58 52 48 45 39 42 42 39 42 35 39 29 29 26 16 16 13 13 13 6 6 13 16 16 23 23 23 29 29 29
29 42 35 19 29 48 61 65 42 39 26 42 45 45 55 55 52 52 52 42 48 39 35 35 35 26 29 29 19 19 19 32 23 16 19 19 23 19 26 29 23 26 32
32 45 45 48 42 48 58 58 58 55 48 39 45 48 61 58 52 45 55 48 45 39 42 32 32 29 35 29 16 29 19 26 26 19 19 19 26 29 29 35 23 26 26
39 45 61 61 58 58 58 61 55 45 42 42 52 58 58 52 55 48 45 58 39 35 48 48 48 52 48 35 16 23 23 23 26 26 26 26 26 26 26 26 29 32 35
48 52 61 61 68 65 58 52 55 42 45 45 39 55 52 55 58 55 35 52 55 35 48 45 48 48 48 32 26 29 26 26 26 26 26 26 26 26 26 29 32 23 32
45 52 58 65 58 65 61 68 71 55 42 39 35 52 48 48 52 35 58 52 48 58 55 48 48 45 35 39 35 35 32 26 29 16 26 29 26 29 26 23 29 39 32
35 45 42 58 61 61 68 55 61 65 52 42 42 45 42 39 39 52 48 48 55 42 52 55 52 45 45 39 35 42 42 23 19 19 23 26 32 29 32 29 32 35 35
35 39 55 65 71 71 65 52 52 65 52 55 58 48 52 48 45 45 45 48 48 42 58 42 45 48 45 39 45 48 45 48 42 23 19 23 29 32 29 29 29 32 35
32 39 55 68 74 74 71 71 71 58 58 52 52 58 65 65 58 48 55 55 55 48 52 55 55 52 45 48 48 48 52 55 42 39 35 32 29 26 26 35 32 32 39
26 42 45 68 74 74 71 71 71 65 65 65 61 61 58 65 65 58 58 61 58 52 58 61 61 58 61 61 58 45 48 45 45 42 39 42 39 26 29 39 35 39 39

GEFSSE_con_cape1000_294.txt.gz
Probability
16 19 42 48 42 52 55 61 65 55 61 58 52 55 55 61 58 61 48 58 58 58 55 55 61 68 68 58 58 55 55 61 58 58 58 58 58 74 74 65 61 52 81
16 19 45 42 48 52 52 52 55 55 52 52 52 48 52 55 52 48 58 52 45 52 55 55 55 65 61 68 65 58 55 55 58 55 48 45 52 68 61 61 55 55 65
19 16 29 45 42 52 48 48 52 55 52 45 48 48 52 55 52 55 52 55 48 39 42 52 55 55 52 55 52 52 52 55 52 45 45 29 39 52 55 55 61 74 68
19 16 29 42 42 55 55 48 48 48 52 48 45 48 45 55 55 52 45 42 42 42 45 45 55 52 55 48 48 55 55 48 48 39 19 13 19 42 48 52 48 68 68
16 16 29 45 45 42 48 45 42 42 39 48 45 52 55 48 55 55 45 42 42 39 42 45 48 52 52 52 48 48 48 42 39 26 10 16 26 42 48 48 55 58 58
19 19 29 42 45 42 42 45 35 35 45 45 35 45 39 35 45 52 48 45 52 45 52 42 48 55 52 48 45 42 35 42 42 10 23 19 23 48 48 52 48 52 48
13 16 23 39 42 45 45 42 39 35 35 35 32 35 42 48 39 45 45 42 48 52 52 45 42 48 52 48 45 45 35 39 23 10 16 13 26 42 42 42 42 45 39
13 16 23 52 55 48 42 42 35 35 42 39 42 35 42 48 52 52 42 48 45 45 45 48 42 45 55 45 42 32 32 39 16 10 10 13 29 32 42 35 35 35 35
10 19 23 29 52 52 52 52 39 35 45 48 45 42 39 52 58 55 48 48 48 45 45 48 42 45 42 42 39 42 45 52 13 10 10 3 23 29 29 23 29 26 29
6 16 23 23 32 39 32 48 42 45 55 58 52 55 68 71 55 52 58 48 39 35 39 39 45 52 52 48 52 42 42 32 16 13 13 10 29 29 19 26 26 26 29
10 16 19 23 23 29 29 29 42 45 52 52 48 45 52 52 35 39 35 45 48 39 39 45 52 52 55 52 52 39 35 13 16 10 13 26 39 23 26 23 13 19 13
16 16 19 23 23 26 16 52 55 39 48 52 61 55 55 68 61 23 48 48 39 35 39 48 48 48 35 23 32 55 16 23 19 13 16 32 32 29 26 26 26 23 26
16 16 19 29 39 32 35 35 55 52 55 58 55 71 68 55 48 48 42 42 52 42 35 39 42 32 32 26 26 23 16 16 16 6 6 26 26 26 19 16 35 29 32
19 23 26 32 52 61 52 65 65 48 61 65 68 68 61 65 61 55 55 52 52 48 48 48 48 42 29 32 29 26 19 19 16 13 10 23 26 26 19 19 19 26 29
26 23 35 52 68 68 74 74 61 65 61 61 77 68 71 58 65 58 65 61 52 52 48 48 48 39 39 32 29 19 19 19 19 19 16 23 19 23 26 32 23 19 29
19 29 39 48 71 77 77 74 81 58 74 65 68 68 68 65 68 55 61 61 58 58 55 52 42 39 39 39 35 29 26 19 19 19 16 13 19 29 26 26 26 16 16
35 42 48 55 65 81 74 74 61 55 55 58 61 65 61 65 61 58 55 55 52 48 48 55 45 48 48 42 39 32 32 29 23 23 19 16 13 26 26 26 29 29 29
48 61 55 26 55 74 74 74 68 68 65 61 61 61 68 68 65 58 52 45 52 45 48 52 52 52 42 45 39 39 39 39 26 26 23 26 29 16 19 29 32 29 32
65 65 71 71 65 71 71 71 68 71 65 61 65 61 58 61 65 61 61 55 58 52 48 45 52 52 42 42 39 42 35 45 39 26 29 29 32 32 23 26 42 39 35
68 74 71 71 77 81 77 71 71 61 58 61 61 65 65 65 58 61 61 61 58 55 52 55 52 52 52 42 29 26 35 35 39 32 29 29 32 32 29 29 32 32 39
68 81 74 71 77 81 81 77 71 58 61 61 61 65 65 58 58 61 61 58 58 58 55 52 52 48 45 45 42 35 35 32 35 39 29 29 29 29 29 32 35 35 35
68 77 77 81 77 74 74 77 74 58 58 61 65 65 61 58 55 52 61 61 61 61 61 55 55 52 48 48 45 42 39 39 35 26 29 29 29 29 26 26 26 39 35
61 74 71 81 81 77 74 74 74 74 65 65 61 61 58 52 55 58 61 58 61 61 58 61 65 52 52 55 55 58 45 42 42 42 32 29 29 32 29 29 29 35 35
55 65 81 84 81 81 81 77 68 65 58 65 68 58 58 58 55 58 61 61 65 61 68 68 65 65 68 58 61 61 61 55 45 42 39 35 32 32 35 29 32 39 39
35 55 74 81 81 84 84 87 74 71 71 68 68 68 65 61 61 61 61 65 65 68 68 68 68 68 68 68 68 61 52 52 52 42 35 35 42 39 29 35 35 42 39
35 52 68 84 81 81 77 74 74 74 74 74 71 61 65 68 68 65 65 68 68 65 65 68 68 68 68 71 68 65 58 55 52 48 45 42 39 39 35 39 39 42 35

GEFSSE_con_cape1000_300.txt.gz
Probability
3 13 71 68 61 65 65 61 61 65 68 77 71 74 71 68 65 61 65 71 65 55 61 61 61 71 65 58 58 58 48 55 52 52 55 58 61 71 71 77 61 48 77
6 23 65 71 61 55 55 58 58 55 58 61 71 68 68 65 74 71 68 61 65 55 65 68 61 65 68 65 61 61 58 48 45 52 52 48 58 61 61 65 58 48 71
10 19 48 65 65 58 61 55 61 58 61 61 68 68 65 61 65 58 61 61 58 61 55 65 65 61 65 58 58 61 61 52 52 45 42 26 32 55 65 65 61 61 68
10 13 32 61 65 58 55 55 52 45 45 52 58 65 61 61 58 55 55 52 52 52 55 65 58 61 71 61 52 55 52 48 52 32 6 13 10 42 58 68 58 58 61
0 10 32 58 74 61 61 52 52 48 55 48 52 58 55 52 61 61 55 55 55 52 58 61 52 58 58 55 58 55 42 52 48 19 3 3 10 42 55 61 58 58 65
3 16 39 65 68 65 58 61 52 55 52 42 32 35 52 61 58 68 61 65 58 48 52 55 55 55 58 52 52 55 45 48 29 10 6 6 13 42 52 52 52 55 61
3 10 39 74 71 68 61 58 52 52 52 48 39 35 42 55 58 61 58 58 52 48 58 61 55 52 55 52 52 58 55 32 6 6 3 6 16 45 45 39 45 52 55
6 6 29 68 71 74 68 65 61 55 52 45 42 52 55 55 55 58 58 61 61 58 58 55 48 45 42 45 55 55 45 32 16 6 3 0 29 42 35 32 42 45 45
10 6 16 29 42 71 68 65 61 61 61 58 61 65 55 52 52 55 55 58 65 58 58 48 45 45 48 58 55 61 52 39 3 3 3 6 29 32 29 35 35 45 42
3 0 0 10 16 23 42 61 68 65 68 65 68 68 65 58 55 55 52 65 61 65 55 52 48 58 55 58 58 52 45 23 6 3 3 6 26 19 26 35 45 42 35
3 0 0 3 3 10 10 32 42 58 58 55 48 55 29 13 13 29 52 58 55 52 52 52 52 58 45 42 52 42 29 3 0 0 3 16 19 23 35 42 42 45 32
6 3 6 3 3 3 13 13 13 16 16 16 6 13 6 3 3 13 45 58 52 45 42 52 52 45 39 19 23 29 3 3 0 0 0 23 29 26 29 42 42 39 39
6 10 10 10 3 3 3 3 6 3 10 3 3 0 3 0 3 6 6 29 29 32 19 29 29 23 26 19 10 6 3 3 0 0 0 23 29 32 29 39 32 32 35
6 6 10 16 10 3 0 0 0 0 3 3 0 0 3 3 0 0 3 3 6 13 10 13 16 16 10 13 6 6 6 6 6 3 3 23 32 35 29 39 23 23 29
6 6 6 6 3 3 0 0 3 0 0 3 3 3 3 0 0 6 10 6 3 10 10 6 10 13 10 10 6 6 6 6 6 6 6 23 29 32 29 32 29 29 29
6 3 3 3 3 3 3 3 0 3 3 10 10 10 6 0 3 10 6 10 6 3 6 3 13 6 6 6 6 6 6 6 6 6 6 16 35 32 39 29 35 29 32
6 3 3 6 6 3 3 6 3 6 6 6 10 10 3 3 3 3 6 6 13 10 13 10 13 6 6 6 3 6 3 3 3 3 3 6 10 29 35 35 32 45 48
6 6 13 16 6 6 3 10 10 6 6 10 10 6 6 13 3 3 6 3 13 10 13 13 13 10 10 6 6 6 6 3 3 3 3 6 6 10 16 29 35 42 45
6 6 13 16 10 10 10 6 10 10 16 19 16 16 16 23 13 10 13 13 13 6 10 16 13 13 6 10 10 10 6 6 10 6 6 3 6 6 6 13 35 39 39
6 10 10 6 13 19 16 13 16 19 19 16 23 19 16 23 16 10 10 10 16 13 13 10 13 16 13 13 19 16 13 6 6 6 10 6 6 6 6 6 16 32 39
13 13 16 16 13 10 19 19 16 16 19 19 23 23 16 16 16 19 23 19 16 16 16 13 13 16 13 16 19 13 10 10 10 10 16 16 16 13 13 13 13 10 19
13 13 19 16 19 19 26 23 19 23 16 16 19 19 26 19 19 19 19 19 19 16 13 16 19 16 23 16 13 10 6 3 3 6 6 10 16 19 19 23 16 13 10
16 19 26 19 19 23 29 26 26 19 23 29 23 26 26 19 23 16 16 19 23 23 23 19 19 23 23 23 13 13 13 3 3 3 6 6 10 10 10 10 10 16 13
26 23 23 26 23 19 19 29 23 26 29 26 26 29 29 23 26 29 26 19 23 26 19 16 19 19 26 23 19 19 16 3 6 6 0 0 6 6 10 10 10 13 13
32 35 26 26 32 26 19 23 26 26 23 23 26 29 29 32 39 32 29 26 26 19 23 23 19 26 23 23 23 19 16 16 3 6 6 3 3 6 3 10 10 10 6
23 32 29 26 26 26 29 29 32 29 29 29 26 29 29 32 32 32 23 23 32 29 23 26 29 29 29 32 26 23 26 19 10 3 3 3 3 6 6 6 10 10 13